GEFSGL_prec_meanprecacc_006.txt.gz
Total_Precipitation_Accumulation
0.00 0.00 0.00 0.00 0.00 0.00 0.01 0.01 0.01 0.01 0.02 0.03 0.04 0.05 0.04 0.03 0.02 0.01 0.01 0.00 0.00 0.00 0.00 0.00 0.00 0.01 0.01 0.02 0.02 0.02 0.03 0.05 0.04 0.08 0.13 0.16 0.22 0.21 0.21 0.18 0.10 0.05 0.04
0.00 0.00 0.00 0.00 0.00 0.00 0.00 0.00 0.00 0.00 0.00 0.00 0.00 0.01 0.01 0.01 0.02 0.02 0.02 0.01 0.01 0.00 0.00 0.00 0.00 0.01 0.01 0.01 0.00 0.00 0.01 0.04 0.08 0.09 0.08 0.07 0.09 0.12 0.14 0.12 0.06 0.03 0.01
0.00 0.00 0.00 0.00 0.00 0.00 0.00 0.00 0.00 0.00 0.00 0.00 0.00 0.00 0.00 0.01 0.02 0.03 0.02 0.01 0.01 0.01 0.00 0.00 0.01 0.01 0.01 0.00 0.00 0.00 0.00 0.02 0.05 0.05 0.07 0.08 0.08 0.05 0.06 0.06 0.04 0.02 0.01
0.00 0.00 0.01 0.01 0.00 0.00 0.00 0.00 0.00 0.00 0.00 0.00 0.00 0.00 0.00 0.00 0.02 0.04 0.04 0.03 0.02 0.01 0.01 0.00 0.00 0.00 0.00 0.00 0.00 0.00 0.00 0.01 0.02 0.04 0.07 0.09 0.09 0.05 0.04 0.04 0.04 0.02 0.01
0.02 0.01 0.00 0.00 0.00 0.00 0.00 0.00 0.00 0.00 0.00 0.00 0.00 0.00 0.00 0.00 0.01 0.02 0.05 0.05 0.05 0.04 0.02 0.02 0.01 0.00 0.00 0.00 0.00 0.00 0.01 0.02 0.03 0.03 0.07 0.10 0.12 0.10 0.06 0.04 0.03 0.02 0.01
0.01 0.01 0.01 0.01 0.02 0.02 0.02 0.02 0.03 0.02 0.01 0.02 0.01 0.01 0.00 0.01 0.01 0.02 0.03 0.05 0.09 0.10 0.07 0.04 0.02 0.01 0.00 0.00 0.00 0.00 0.00 0.01 0.02 0.03 0.05 0.10 0.11 0.08 0.07 0.07 0.05 0.03 0.02
0.00 0.00 0.00 0.01 0.01 0.02 0.04 0.05 0.05 0.04 0.03 0.04 0.04 0.02 0.01 0.01 0.01 0.01 0.01 0.02 0.06 0.11 0.13 0.10 0.05 0.02 0.01 0.00 0.00 0.00 0.00 0.00 0.00 0.01 0.03 0.09 0.14 0.13 0.10 0.08 0.08 0.08 0.07
0.00 0.00 0.01 0.01 0.02 0.02 0.02 0.03 0.03 0.04 0.05 0.05 0.04 0.03 0.02 0.01 0.01 0.01 0.01 0.04 0.05 0.05 0.09 0.12 0.09 0.04 0.01 0.00 0.00 0.00 0.00 0.00 0.00 0.00 0.01 0.06 0.12 0.14 0.12 0.10 0.10 0.12 0.12
0.01 0.02 0.02 0.03 0.03 0.03 0.02 0.02 0.02 0.04 0.03 0.03 0.02 0.02 0.03 0.02 0.02 0.02 0.02 0.03 0.04 0.04 0.06 0.10 0.10 0.05 0.01 0.00 0.00 0.00 0.00 0.00 0.01 0.01 0.01 0.05 0.10 0.09 0.05 0.04 0.06 0.06 0.07
0.04 0.05 0.05 0.05 0.04 0.03 0.02 0.01 0.01 0.01 0.02 0.01 0.01 0.01 0.02 0.02 0.02 0.02 0.02 0.02 0.04 0.04 0.05 0.10 0.12 0.07 0.02 0.00 0.00 0.00 0.00 0.00 0.00 0.00 0.01 0.03 0.04 0.03 0.01 0.02 0.02 0.01 0.01
0.05 0.06 0.05 0.04 0.02 0.02 0.01 0.01 0.01 0.00 0.00 0.00 0.00 0.01 0.02 0.02 0.01 0.01 0.02 0.03 0.03 0.05 0.07 0.11 0.15 0.11 0.04 0.01 0.00 0.00 0.01 0.00 0.00 0.00 0.00 0.01 0.01 0.01 0.00 0.02 0.02 0.01 0.00
0.04 0.04 0.02 0.02 0.01 0.01 0.00 0.00 0.00 0.00 0.00 0.01 0.01 0.01 0.01 0.02 0.01 0.00 0.01 0.02 0.04 0.06 0.13 0.18 0.18 0.18 0.07 0.02 0.01 0.01 0.01 0.00 0.00 0.00 0.00 0.00 0.00 0.00 0.00 0.01 0.01 0.00 0.00
0.04 0.03 0.03 0.02 0.02 0.02 0.01 0.01 0.01 0.01 0.01 0.02 0.02 0.01 0.00 0.02 0.02 0.00 0.00 0.01 0.03 0.06 0.15 0.26 0.29 0.26 0.14 0.05 0.03 0.02 0.01 0.00 0.00 0.00 0.00 0.00 0.00 0.00 0.00 0.00 0.00 0.00 0.00
0.06 0.05 0.04 0.04 0.03 0.03 0.02 0.02 0.02 0.02 0.03 0.03 0.03 0.02 0.02 0.02 0.02 0.00 0.00 0.00 0.01 0.03 0.13 0.26 0.38 0.36 0.22 0.10 0.06 0.03 0.01 0.00 0.00 0.00 0.00 0.00 0.00 0.00 0.00 0.00 0.00 0.00 0.00
0.08 0.06 0.04 0.03 0.02 0.02 0.02 0.01 0.02 0.03 0.04 0.05 0.05 0.03 0.02 0.02 0.00 0.00 0.00 0.00 0.00 0.02 0.10 0.30 0.43 0.43 0.30 0.14 0.06 0.03 0.01 0.00 0.00 0.00 0.00 0.00 0.00 0.00 0.00 0.00 0.00 0.00 0.00
0.09 0.06 0.05 0.04 0.04 0.03 0.02 0.02 0.02 0.02 0.04 0.06 0.09 0.05 0.01 0.00 0.00 0.00 0.00 0.00 0.00 0.02 0.14 0.32 0.42 0.39 0.29 0.16 0.06 0.02 0.01 0.00 0.00 0.00 0.00 0.00 0.00 0.00 0.00 0.00 0.00 0.00 0.00
0.08 0.08 0.07 0.05 0.04 0.03 0.03 0.03 0.05 0.05 0.05 0.06 0.12 0.10 0.02 0.00 0.00 0.00 0.01 0.01 0.02 0.05 0.19 0.26 0.29 0.26 0.20 0.13 0.05 0.01 0.00 0.00 0.00 0.00 0.00 0.00 0.00 0.00 0.00 0.00 0.00 0.00 0.00
0.08 0.09 0.07 0.05 0.04 0.04 0.02 0.01 0.02 0.05 0.09 0.08 0.09 0.09 0.04 0.01 0.00 0.01 0.03 0.06 0.07 0.08 0.17 0.17 0.16 0.15 0.11 0.08 0.03 0.01 0.00 0.00 0.00 0.00 0.00 0.00 0.00 0.00 0.00 0.00 0.00 0.00 0.00
0.06 0.05 0.04 0.04 0.05 0.04 0.02 0.01 0.01 0.03 0.05 0.07 0.04 0.03 0.02 0.01 0.00 0.02 0.11 0.19 0.14 0.09 0.11 0.09 0.07 0.07 0.05 0.03 0.01 0.00 0.00 0.00 0.00 0.00 0.00 0.00 0.00 0.00 0.00 0.00 0.00 0.00 0.00
0.03 0.02 0.01 0.00 0.01 0.01 0.01 0.01 0.01 0.02 0.03 0.06 0.03 0.01 0.00 0.00 0.00 0.03 0.16 0.24 0.14 0.08 0.07 0.04 0.02 0.02 0.01 0.00 0.00 0.00 0.00 0.00 0.00 0.00 0.00 0.00 0.00 0.00 0.00 0.00 0.00 0.00 0.00
0.03 0.02 0.01 0.00 0.00 0.01 0.01 0.01 0.01 0.02 0.06 0.07 0.04 0.00 0.00 0.00 0.01 0.04 0.12 0.15 0.08 0.04 0.03 0.01 0.01 0.00 0.00 0.00 0.00 0.00 0.00 0.00 0.00 0.00 0.00 0.00 0.00 0.00 0.00 0.00 0.00 0.00 0.00
0.02 0.01 0.02 0.02 0.01 0.00 0.00 0.01 0.01 0.02 0.04 0.05 0.03 0.01 0.01 0.01 0.02 0.05 0.08 0.06 0.03 0.01 0.01 0.00 0.00 0.00 0.00 0.00 0.00 0.00 0.00 0.00 0.00 0.00 0.00 0.00 0.00 0.00 0.00 0.00 0.00 0.00 0.00
0.02 0.01 0.01 0.02 0.02 0.01 0.01 0.01 0.01 0.02 0.03 0.03 0.01 0.00 0.01 0.02 0.02 0.04 0.04 0.03 0.01 0.01 0.00 0.00 0.00 0.00 0.00 0.00 0.00 0.00 0.00 0.00 0.00 0.00 0.00 0.00 0.00 0.00 0.00 0.00 0.00 0.00 0.00
0.04 0.02 0.01 0.01 0.01 0.02 0.02 0.01 0.01 0.02 0.02 0.02 0.01 0.00 0.01 0.01 0.01 0.02 0.02 0.01 0.01 0.00 0.00 0.00 0.00 0.00 0.00 0.00 0.00 0.00 0.00 0.00 0.00 0.00 0.00 0.00 0.00 0.00 0.00 0.00 0.00 0.00 0.00
0.09 0.08 0.05 0.02 0.01 0.02 0.02 0.01 0.01 0.01 0.01 0.01 0.00 0.00 0.00 0.01 0.01 0.01 0.00 0.00 0.01 0.00 0.00 0.00 0.00 0.00 0.00 0.00 0.00 0.00 0.00 0.00 0.00 0.00 0.00 0.00 0.00 0.00 0.00 0.00 0.00 0.00 0.00
0.07 0.11 0.11 0.09 0.06 0.03 0.01 0.00 0.00 0.00 0.00 0.00 0.00 0.00 0.00 0.00 0.00 0.00 0.00 0.00 0.00 0.00 0.00 0.00 0.00 0.00 0.00 0.00 0.00 0.00 0.00 0.00 0.00 0.00 0.00 0.00 0.00 0.00 0.00 0.00 0.00 0.00 0.00

GEFSGL_prec_meanprecacc_012.txt.gz
Total_Precipitation_Accumulation
0.00 0.00 0.00 0.00 0.00 0.00 0.01 0.01 0.01 0.01 0.02 0.03 0.05 0.07 0.08 0.10 0.13 0.16 0.19 0.19 0.13 0.06 0.03 0.01 0.01 0.01 0.01 0.02 0.02 0.02 0.03 0.05 0.04 0.08 0.13 0.17 0.23 0.21 0.22 0.19 0.11 0.08 0.09
0.00 0.00 0.00 0.00 0.00 0.00 0.00 0.00 0.00 0.00 0.00 0.00 0.00 0.01 0.02 0.03 0.05 0.08 0.13 0.17 0.17 0.13 0.09 0.04 0.02 0.01 0.01 0.01 0.00 0.00 0.01 0.04 0.08 0.09 0.08 0.08 0.11 0.14 0.15 0.13 0.09 0.07 0.06
0.00 0.00 0.00 0.00 0.00 0.00 0.00 0.00 0.00 0.00 0.00 0.00 0.00 0.00 0.00 0.01 0.03 0.04 0.05 0.07 0.10 0.13 0.15 0.13 0.08 0.04 0.02 0.00 0.00 0.00 0.00 0.02 0.05 0.05 0.07 0.09 0.10 0.10 0.09 0.08 0.07 0.06 0.05
0.00 0.00 0.01 0.01 0.00 0.00 0.00 0.00 0.00 0.00 0.00 0.00 0.00 0.00 0.00 0.00 0.02 0.04 0.04 0.04 0.04 0.05 0.08 0.12 0.13 0.10 0.05 0.02 0.00 0.00 0.00 0.01 0.02 0.04 0.09 0.12 0.13 0.11 0.09 0.07 0.08 0.07 0.05
0.02 0.01 0.00 0.00 0.00 0.00 0.00 0.00 0.00 0.00 0.00 0.00 0.00 0.00 0.00 0.00 0.01 0.02 0.05 0.05 0.06 0.04 0.04 0.05 0.07 0.07 0.07 0.04 0.01 0.00 0.01 0.02 0.03 0.04 0.09 0.14 0.17 0.18 0.14 0.09 0.06 0.05 0.05
0.01 0.01 0.01 0.01 0.02 0.03 0.02 0.02 0.03 0.02 0.02 0.02 0.01 0.01 0.01 0.01 0.01 0.02 0.03 0.05 0.09 0.10 0.07 0.05 0.04 0.03 0.03 0.03 0.02 0.01 0.01 0.01 0.02 0.03 0.07 0.13 0.15 0.13 0.11 0.10 0.08 0.05 0.06
0.00 0.00 0.00 0.01 0.02 0.04 0.06 0.07 0.06 0.04 0.04 0.05 0.04 0.03 0.01 0.01 0.01 0.01 0.01 0.03 0.06 0.11 0.13 0.10 0.06 0.04 0.03 0.03 0.02 0.01 0.00 0.00 0.00 0.01 0.04 0.11 0.17 0.17 0.16 0.14 0.11 0.10 0.10
0.00 0.01 0.02 0.03 0.05 0.06 0.07 0.08 0.09 0.09 0.09 0.08 0.06 0.05 0.03 0.02 0.02 0.01 0.02 0.04 0.06 0.05 0.09 0.12 0.09 0.05 0.04 0.03 0.03 0.02 0.01 0.00 0.00 0.00 0.02 0.07 0.15 0.20 0.20 0.20 0.22 0.21 0.20
0.02 0.03 0.04 0.06 0.07 0.08 0.09 0.09 0.11 0.12 0.10 0.08 0.06 0.05 0.04 0.03 0.03 0.02 0.02 0.03 0.05 0.04 0.06 0.10 0.11 0.08 0.05 0.04 0.02 0.02 0.01 0.01 0.01 0.01 0.02 0.08 0.17 0.21 0.21 0.21 0.24 0.20 0.18
0.05 0.07 0.08 0.09 0.09 0.09 0.09 0.09 0.10 0.11 0.11 0.09 0.07 0.05 0.05 0.04 0.02 0.02 0.02 0.02 0.04 0.04 0.05 0.10 0.14 0.11 0.08 0.06 0.03 0.02 0.01 0.00 0.00 0.01 0.02 0.07 0.10 0.13 0.16 0.15 0.14 0.11 0.08
0.07 0.08 0.08 0.07 0.07 0.08 0.08 0.07 0.07 0.06 0.06 0.07 0.07 0.06 0.06 0.04 0.02 0.01 0.03 0.03 0.04 0.05 0.07 0.12 0.18 0.17 0.13 0.09 0.06 0.03 0.02 0.01 0.01 0.01 0.02 0.05 0.07 0.09 0.10 0.12 0.12 0.07 0.03
0.06 0.07 0.06 0.06 0.08 0.09 0.10 0.09 0.07 0.05 0.04 0.04 0.05 0.04 0.04 0.03 0.01 0.01 0.01 0.02 0.04 0.06 0.13 0.18 0.22 0.27 0.20 0.16 0.13 0.09 0.04 0.02 0.01 0.01 0.03 0.04 0.05 0.06 0.06 0.07 0.07 0.04 0.01
0.08 0.08 0.08 0.09 0.11 0.13 0.14 0.12 0.10 0.08 0.06 0.05 0.04 0.02 0.02 0.03 0.02 0.00 0.00 0.01 0.03 0.06 0.15 0.27 0.35 0.40 0.33 0.25 0.22 0.18 0.07 0.03 0.02 0.02 0.02 0.02 0.02 0.03 0.03 0.04 0.03 0.01 0.00
0.11 0.10 0.10 0.11 0.10 0.10 0.11 0.10 0.09 0.08 0.08 0.06 0.05 0.03 0.02 0.03 0.02 0.00 0.00 0.00 0.01 0.03 0.13 0.28 0.45 0.55 0.53 0.42 0.34 0.27 0.13 0.05 0.03 0.02 0.02 0.02 0.02 0.02 0.02 0.02 0.01 0.01 0.00
0.13 0.11 0.10 0.07 0.06 0.06 0.05 0.05 0.05 0.06 0.07 0.08 0.07 0.04 0.03 0.02 0.00 0.00 0.00 0.00 0.00 0.02 0.11 0.32 0.50 0.63 0.66 0.60 0.49 0.37 0.21 0.09 0.05 0.04 0.03 0.02 0.02 0.02 0.02 0.02 0.02 0.01 0.00
0.15 0.12 0.10 0.08 0.07 0.06 0.05 0.05 0.06 0.06 0.08 0.09 0.11 0.07 0.02 0.01 0.01 0.01 0.00 0.00 0.00 0.03 0.14 0.33 0.48 0.57 0.61 0.65 0.61 0.48 0.27 0.11 0.06 0.04 0.03 0.02 0.02 0.01 0.02 0.02 0.02 0.02 0.01
0.13 0.11 0.10 0.07 0.06 0.05 0.05 0.07 0.10 0.09 0.09 0.11 0.18 0.14 0.04 0.02 0.01 0.01 0.01 0.01 0.02 0.06 0.19 0.26 0.32 0.38 0.44 0.55 0.61 0.52 0.28 0.11 0.06 0.04 0.03 0.02 0.01 0.01 0.01 0.01 0.01 0.01 0.01
0.11 0.10 0.08 0.05 0.05 0.04 0.03 0.05 0.08 0.13 0.17 0.17 0.21 0.24 0.10 0.04 0.02 0.02 0.03 0.07 0.08 0.08 0.17 0.18 0.18 0.22 0.29 0.41 0.52 0.50 0.30 0.13 0.07 0.04 0.03 0.02 0.01 0.01 0.01 0.01 0.00 0.00 0.00
0.08 0.06 0.05 0.05 0.05 0.04 0.02 0.02 0.05 0.09 0.12 0.16 0.15 0.15 0.11 0.05 0.02 0.03 0.12 0.19 0.14 0.09 0.12 0.10 0.09 0.13 0.20 0.32 0.41 0.41 0.29 0.14 0.07 0.03 0.02 0.01 0.01 0.00 0.00 0.00 0.00 0.00 0.00
0.06 0.04 0.01 0.01 0.01 0.02 0.01 0.02 0.02 0.05 0.07 0.10 0.07 0.05 0.03 0.02 0.01 0.03 0.16 0.25 0.16 0.09 0.08 0.06 0.05 0.08 0.16 0.26 0.32 0.31 0.23 0.12 0.05 0.03 0.01 0.01 0.00 0.00 0.00 0.00 0.00 0.00 0.00
0.08 0.04 0.02 0.01 0.01 0.01 0.01 0.02 0.02 0.05 0.10 0.08 0.05 0.01 0.01 0.01 0.01 0.05 0.14 0.17 0.11 0.08 0.06 0.04 0.04 0.07 0.13 0.20 0.23 0.21 0.15 0.08 0.03 0.02 0.01 0.00 0.00 0.00 0.00 0.00 0.00 0.00 0.00
0.10 0.05 0.03 0.02 0.01 0.01 0.01 0.01 0.01 0.03 0.05 0.05 0.04 0.01 0.01 0.02 0.03 0.07 0.11 0.10 0.07 0.05 0.04 0.03 0.04 0.07 0.09 0.12 0.12 0.10 0.07 0.03 0.01 0.01 0.00 0.00 0.00 0.00 0.00 0.00 0.00 0.00 0.00
0.10 0.06 0.04 0.03 0.02 0.01 0.01 0.01 0.01 0.02 0.04 0.04 0.02 0.02 0.03 0.04 0.04 0.07 0.09 0.08 0.06 0.05 0.03 0.03 0.04 0.05 0.05 0.05 0.04 0.03 0.02 0.01 0.00 0.00 0.00 0.00 0.00 0.00 0.00 0.00 0.00 0.00 0.00
0.10 0.08 0.05 0.03 0.02 0.02 0.02 0.01 0.01 0.02 0.03 0.03 0.03 0.02 0.03 0.05 0.06 0.08 0.08 0.07 0.05 0.04 0.03 0.03 0.02 0.02 0.02 0.01 0.02 0.01 0.01 0.00 0.00 0.00 0.00 0.00 0.00 0.00 0.00 0.00 0.00 0.00 0.00
0.13 0.13 0.09 0.06 0.03 0.03 0.02 0.01 0.01 0.01 0.01 0.01 0.02 0.02 0.03 0.04 0.05 0.05 0.05 0.04 0.04 0.03 0.02 0.02 0.01 0.00 0.00 0.00 0.00 0.00 0.00 0.00 0.00 0.00 0.00 0.00 0.00 0.00 0.00 0.00 0.00 0.00 0.00
0.09 0.15 0.16 0.13 0.07 0.04 0.02 0.01 0.00 0.00 0.00 0.00 0.01 0.01 0.01 0.02 0.02 0.02 0.02 0.03 0.02 0.02 0.01 0.01 0.00 0.00 0.00 0.00 0.00 0.00 0.00 0.00 0.00 0.00 0.00 0.00 0.00 0.00 0.00 0.00 0.00 0.00 0.00

GEFSGL_prec_meanprecacc_018.txt.gz
Total_Precipitation_Accumulation
0.00 0.00 0.00 0.00 0.00 0.00 0.01 0.01 0.01 0.01 0.02 0.03 0.05 0.07 0.08 0.10 0.13 0.17 0.24 0.36 0.49 0.56 0.53 0.42 0.30 0.21 0.14 0.08 0.05 0.04 0.04 0.06 0.06 0.10 0.14 0.18 0.24 0.23 0.23 0.20 0.12 0.09 0.09
0.00 0.00 0.00 0.00 0.00 0.00 0.00 0.00 0.00 0.00 0.00 0.00 0.00 0.01 0.02 0.03 0.05 0.08 0.13 0.21 0.33 0.49 0.64 0.66 0.55 0.41 0.27 0.16 0.09 0.05 0.04 0.06 0.10 0.13 0.11 0.09 0.13 0.16 0.19 0.14 0.10 0.07 0.07
0.00 0.00 0.00 0.00 0.00 0.00 0.00 0.00 0.00 0.00 0.00 0.00 0.00 0.00 0.00 0.01 0.03 0.04 0.05 0.07 0.12 0.22 0.38 0.58 0.67 0.61 0.44 0.29 0.19 0.12 0.08 0.05 0.07 0.10 0.12 0.12 0.12 0.12 0.12 0.09 0.08 0.07 0.05
0.00 0.00 0.01 0.01 0.00 0.00 0.00 0.00 0.00 0.00 0.00 0.00 0.01 0.00 0.00 0.01 0.02 0.04 0.05 0.04 0.05 0.07 0.13 0.26 0.46 0.61 0.58 0.46 0.32 0.21 0.17 0.12 0.08 0.09 0.13 0.14 0.15 0.14 0.11 0.09 0.09 0.09 0.06
0.02 0.01 0.00 0.00 0.00 0.01 0.01 0.01 0.01 0.02 0.01 0.02 0.02 0.02 0.02 0.01 0.01 0.04 0.07 0.07 0.07 0.06 0.06 0.08 0.16 0.31 0.46 0.51 0.45 0.33 0.24 0.18 0.14 0.11 0.13 0.16 0.19 0.21 0.17 0.12 0.07 0.07 0.07
0.01 0.01 0.01 0.02 0.03 0.03 0.03 0.04 0.05 0.05 0.05 0.07 0.06 0.06 0.05 0.03 0.02 0.02 0.05 0.08 0.13 0.14 0.11 0.09 0.07 0.10 0.20 0.33 0.42 0.41 0.32 0.21 0.16 0.13 0.13 0.17 0.18 0.15 0.13 0.12 0.09 0.06 0.08
0.00 0.00 0.01 0.02 0.03 0.05 0.07 0.09 0.09 0.09 0.10 0.11 0.11 0.09 0.08 0.07 0.06 0.04 0.02 0.07 0.13 0.16 0.19 0.16 0.10 0.07 0.08 0.13 0.23 0.30 0.30 0.22 0.14 0.11 0.14 0.20 0.24 0.22 0.18 0.15 0.13 0.12 0.11
0.01 0.01 0.02 0.04 0.06 0.08 0.10 0.12 0.13 0.15 0.15 0.15 0.14 0.13 0.12 0.10 0.10 0.06 0.04 0.09 0.14 0.12 0.14 0.17 0.14 0.10 0.08 0.07 0.09 0.15 0.19 0.18 0.13 0.07 0.09 0.18 0.27 0.31 0.24 0.22 0.24 0.25 0.24
0.02 0.03 0.05 0.07 0.10 0.11 0.12 0.13 0.16 0.18 0.16 0.15 0.14 0.15 0.15 0.14 0.13 0.09 0.07 0.12 0.15 0.12 0.11 0.12 0.14 0.12 0.08 0.05 0.05 0.06 0.10 0.12 0.11 0.08 0.07 0.16 0.25 0.29 0.27 0.24 0.27 0.26 0.26
0.06 0.07 0.09 0.11 0.12 0.13 0.13 0.14 0.16 0.18 0.18 0.17 0.15 0.15 0.18 0.18 0.16 0.09 0.07 0.10 0.13 0.11 0.12 0.14 0.16 0.13 0.10 0.06 0.05 0.04 0.04 0.06 0.07 0.06 0.05 0.09 0.13 0.17 0.19 0.18 0.18 0.17 0.17
0.07 0.09 0.10 0.10 0.11 0.12 0.13 0.13 0.13 0.14 0.14 0.14 0.15 0.16 0.18 0.18 0.14 0.08 0.07 0.09 0.10 0.09 0.09 0.13 0.19 0.18 0.13 0.09 0.07 0.05 0.04 0.04 0.07 0.07 0.07 0.09 0.13 0.15 0.14 0.18 0.20 0.16 0.14
0.07 0.08 0.08 0.09 0.11 0.13 0.15 0.15 0.13 0.12 0.12 0.12 0.12 0.12 0.15 0.16 0.12 0.08 0.05 0.05 0.07 0.08 0.15 0.19 0.23 0.28 0.20 0.16 0.13 0.10 0.05 0.04 0.06 0.09 0.10 0.10 0.10 0.11 0.12 0.16 0.20 0.20 0.15
0.09 0.09 0.09 0.11 0.14 0.16 0.19 0.19 0.17 0.16 0.16 0.14 0.11 0.09 0.09 0.12 0.11 0.06 0.04 0.03 0.04 0.07 0.16 0.27 0.35 0.40 0.33 0.26 0.22 0.19 0.11 0.06 0.07 0.09 0.10 0.09 0.07 0.06 0.08 0.11 0.14 0.16 0.16
0.12 0.11 0.11 0.13 0.12 0.13 0.15 0.16 0.16 0.18 0.18 0.15 0.14 0.11 0.10 0.09 0.08 0.04 0.03 0.02 0.01 0.04 0.13 0.28 0.45 0.55 0.53 0.42 0.35 0.30 0.19 0.11 0.10 0.11 0.11 0.10 0.08 0.07 0.07 0.06 0.06 0.07 0.09
0.15 0.12 0.11 0.09 0.08 0.08 0.08 0.09 0.10 0.14 0.14 0.13 0.13 0.12 0.10 0.09 0.05 0.02 0.02 0.02 0.01 0.02 0.11 0.33 0.51 0.64 0.67 0.62 0.52 0.42 0.32 0.22 0.18 0.17 0.14 0.11 0.09 0.07 0.07 0.06 0.04 0.03 0.02
0.18 0.14 0.11 0.10 0.09 0.08 0.07 0.08 0.10 0.11 0.10 0.11 0.12 0.09 0.05 0.04 0.03 0.01 0.01 0.01 0.01 0.03 0.15 0.34 0.49 0.58 0.63 0.68 0.66 0.58 0.43 0.31 0.26 0.23 0.17 0.11 0.08 0.07 0.06 0.06 0.05 0.03 0.02
0.17 0.15 0.12 0.09 0.08 0.07 0.07 0.10 0.15 0.16 0.14 0.13 0.19 0.15 0.05 0.03 0.02 0.02 0.02 0.02 0.03 0.06 0.20 0.29 0.35 0.41 0.48 0.60 0.68 0.66 0.49 0.36 0.34 0.33 0.24 0.15 0.09 0.07 0.06 0.06 0.05 0.04 0.03
0.17 0.16 0.11 0.08 0.08 0.07 0.06 0.08 0.12 0.19 0.25 0.22 0.24 0.25 0.11 0.05 0.03 0.02 0.04 0.07 0.08 0.09 0.18 0.21 0.22 0.27 0.34 0.49 0.61 0.65 0.56 0.43 0.40 0.41 0.33 0.19 0.12 0.08 0.06 0.05 0.04 0.03 0.03
0.14 0.11 0.08 0.08 0.08 0.07 0.05 0.06 0.09 0.13 0.18 0.20 0.18 0.17 0.13 0.07 0.04 0.04 0.13 0.20 0.16 0.10 0.13 0.13 0.13 0.18 0.26 0.40 0.52 0.59 0.57 0.48 0.43 0.43 0.36 0.23 0.14 0.09 0.06 0.05 0.04 0.03 0.02
0.12 0.11 0.06 0.04 0.04 0.05 0.05 0.06 0.07 0.10 0.13 0.14 0.11 0.08 0.06 0.04 0.03 0.05 0.18 0.27 0.18 0.11 0.11 0.08 0.08 0.12 0.21 0.35 0.46 0.52 0.53 0.50 0.45 0.42 0.33 0.21 0.13 0.09 0.06 0.05 0.04 0.02 0.02
0.13 0.10 0.08 0.04 0.03 0.04 0.05 0.06 0.07 0.11 0.16 0.13 0.07 0.03 0.02 0.03 0.04 0.07 0.16 0.19 0.13 0.10 0.08 0.06 0.07 0.10 0.19 0.31 0.40 0.45 0.46 0.45 0.42 0.37 0.27 0.17 0.11 0.09 0.07 0.04 0.03 0.02 0.01
0.15 0.11 0.08 0.05 0.03 0.03 0.03 0.05 0.06 0.07 0.09 0.08 0.06 0.02 0.02 0.04 0.05 0.09 0.13 0.13 0.09 0.08 0.06 0.05 0.07 0.12 0.17 0.25 0.30 0.36 0.38 0.38 0.35 0.28 0.20 0.13 0.08 0.06 0.04 0.03 0.01 0.01 0.00
0.14 0.12 0.08 0.06 0.04 0.03 0.04 0.05 0.05 0.05 0.07 0.07 0.05 0.04 0.05 0.07 0.08 0.12 0.15 0.13 0.10 0.08 0.07 0.06 0.09 0.13 0.17 0.20 0.24 0.28 0.29 0.29 0.24 0.17 0.11 0.07 0.04 0.03 0.02 0.01 0.01 0.00 0.00
0.14 0.13 0.08 0.06 0.04 0.04 0.04 0.05 0.04 0.04 0.05 0.06 0.06 0.06 0.07 0.09 0.12 0.15 0.14 0.12 0.11 0.09 0.08 0.08 0.10 0.12 0.14 0.18 0.23 0.25 0.25 0.21 0.14 0.09 0.05 0.02 0.02 0.01 0.01 0.00 0.00 0.00 0.00
0.15 0.16 0.12 0.09 0.05 0.04 0.04 0.03 0.03 0.03 0.04 0.04 0.06 0.07 0.09 0.11 0.13 0.13 0.12 0.11 0.10 0.09 0.09 0.09 0.09 0.10 0.12 0.15 0.17 0.17 0.17 0.13 0.07 0.04 0.02 0.01 0.01 0.01 0.00 0.00 0.00 0.00 0.00
0.11 0.17 0.18 0.15 0.10 0.05 0.04 0.02 0.02 0.02 0.03 0.03 0.05 0.06 0.08 0.10 0.10 0.10 0.10 0.09 0.08 0.08 0.08 0.07 0.07 0.08 0.10 0.11 0.09 0.08 0.07 0.04 0.03 0.02 0.01 0.01 0.00 0.00 0.00 0.00 0.00 0.00 0.00

GEFSGL_prec_meanprecacc_024.txt.gz
Total_Precipitation_Accumulation
0.00 0.00 0.00 0.00 0.00 0.00 0.01 0.01 0.01 0.02 0.02 0.03 0.05 0.07 0.09 0.10 0.13 0.18 0.25 0.36 0.49 0.57 0.55 0.48 0.42 0.42 0.39 0.32 0.26 0.19 0.14 0.15 0.19 0.24 0.28 0.32 0.32 0.26 0.24 0.21 0.12 0.09 0.09
0.00 0.00 0.00 0.00 0.00 0.00 0.00 0.00 0.00 0.00 0.00 0.01 0.01 0.02 0.02 0.03 0.05 0.09 0.15 0.22 0.33 0.49 0.65 0.68 0.60 0.52 0.46 0.38 0.32 0.28 0.24 0.23 0.26 0.32 0.35 0.35 0.30 0.29 0.27 0.17 0.11 0.08 0.07
0.00 0.00 0.00 0.00 0.00 0.00 0.00 0.00 0.00 0.00 0.01 0.01 0.01 0.01 0.01 0.02 0.04 0.05 0.06 0.08 0.14 0.23 0.39 0.59 0.69 0.66 0.54 0.46 0.38 0.33 0.30 0.28 0.27 0.29 0.35 0.40 0.39 0.31 0.22 0.12 0.09 0.08 0.05
0.00 0.00 0.01 0.01 0.01 0.01 0.01 0.01 0.01 0.01 0.02 0.02 0.02 0.02 0.03 0.03 0.04 0.06 0.07 0.07 0.07 0.09 0.15 0.28 0.47 0.63 0.62 0.54 0.46 0.39 0.37 0.36 0.33 0.32 0.36 0.41 0.44 0.39 0.24 0.11 0.10 0.09 0.06
0.02 0.01 0.01 0.01 0.01 0.01 0.01 0.02 0.02 0.03 0.03 0.04 0.05 0.06 0.06 0.06 0.04 0.06 0.11 0.11 0.13 0.12 0.11 0.12 0.18 0.32 0.48 0.55 0.51 0.45 0.41 0.39 0.39 0.36 0.38 0.43 0.46 0.43 0.29 0.15 0.08 0.07 0.07
0.01 0.01 0.01 0.02 0.03 0.04 0.04 0.05 0.06 0.07 0.08 0.10 0.10 0.11 0.11 0.07 0.06 0.07 0.10 0.14 0.21 0.25 0.22 0.18 0.14 0.13 0.22 0.34 0.44 0.47 0.45 0.40 0.39 0.39 0.41 0.47 0.50 0.44 0.36 0.19 0.10 0.06 0.08
0.01 0.01 0.01 0.03 0.04 0.06 0.08 0.11 0.11 0.12 0.13 0.16 0.15 0.15 0.15 0.14 0.12 0.10 0.07 0.14 0.23 0.30 0.34 0.31 0.19 0.10 0.12 0.16 0.24 0.33 0.37 0.34 0.32 0.35 0.39 0.48 0.62 0.63 0.51 0.28 0.15 0.13 0.11
0.01 0.02 0.03 0.05 0.07 0.10 0.12 0.14 0.17 0.19 0.20 0.20 0.19 0.19 0.20 0.18 0.16 0.12 0.09 0.16 0.23 0.24 0.30 0.35 0.27 0.21 0.18 0.18 0.16 0.17 0.21 0.23 0.22 0.22 0.28 0.41 0.58 0.72 0.66 0.50 0.36 0.28 0.24
0.03 0.04 0.06 0.09 0.11 0.13 0.15 0.17 0.22 0.24 0.22 0.21 0.20 0.22 0.25 0.24 0.21 0.14 0.11 0.22 0.28 0.25 0.25 0.28 0.29 0.25 0.19 0.14 0.15 0.13 0.13 0.15 0.18 0.19 0.22 0.35 0.47 0.59 0.66 0.57 0.39 0.28 0.26
0.07 0.08 0.10 0.13 0.15 0.16 0.17 0.19 0.22 0.25 0.25 0.23 0.21 0.23 0.27 0.29 0.25 0.14 0.11 0.22 0.30 0.29 0.30 0.33 0.35 0.32 0.22 0.12 0.13 0.14 0.11 0.11 0.12 0.14 0.16 0.22 0.30 0.36 0.46 0.46 0.31 0.19 0.17
0.08 0.10 0.11 0.12 0.14 0.15 0.18 0.20 0.21 0.23 0.22 0.22 0.22 0.25 0.29 0.29 0.24 0.13 0.10 0.19 0.27 0.29 0.28 0.29 0.35 0.31 0.22 0.13 0.12 0.13 0.11 0.10 0.12 0.13 0.15 0.19 0.25 0.31 0.34 0.41 0.36 0.21 0.14
0.07 0.09 0.10 0.11 0.13 0.15 0.21 0.23 0.23 0.23 0.22 0.21 0.22 0.23 0.27 0.29 0.22 0.14 0.07 0.10 0.20 0.29 0.38 0.37 0.39 0.40 0.26 0.18 0.15 0.14 0.08 0.06 0.11 0.16 0.18 0.19 0.21 0.24 0.28 0.35 0.36 0.29 0.18
0.09 0.10 0.11 0.13 0.16 0.21 0.27 0.28 0.28 0.29 0.29 0.26 0.23 0.21 0.23 0.27 0.22 0.10 0.06 0.05 0.12 0.24 0.41 0.52 0.52 0.49 0.38 0.28 0.23 0.20 0.11 0.07 0.09 0.13 0.16 0.17 0.18 0.21 0.25 0.28 0.27 0.22 0.19
0.14 0.12 0.13 0.15 0.15 0.18 0.25 0.27 0.29 0.30 0.29 0.25 0.23 0.23 0.24 0.25 0.22 0.14 0.08 0.05 0.07 0.15 0.30 0.45 0.55 0.61 0.56 0.44 0.36 0.30 0.19 0.12 0.11 0.13 0.16 0.20 0.23 0.23 0.23 0.17 0.13 0.11 0.12
0.16 0.14 0.13 0.11 0.11 0.13 0.18 0.21 0.18 0.21 0.17 0.15 0.17 0.20 0.22 0.22 0.14 0.08 0.10 0.10 0.08 0.10 0.22 0.45 0.58 0.67 0.69 0.63 0.53 0.44 0.33 0.23 0.19 0.19 0.19 0.21 0.23 0.23 0.20 0.15 0.10 0.06 0.04
0.19 0.16 0.13 0.11 0.13 0.15 0.16 0.18 0.17 0.13 0.11 0.12 0.13 0.10 0.07 0.07 0.04 0.02 0.02 0.02 0.03 0.07 0.22 0.44 0.58 0.64 0.66 0.70 0.68 0.61 0.46 0.33 0.27 0.26 0.23 0.22 0.23 0.20 0.16 0.12 0.09 0.07 0.04
0.19 0.17 0.13 0.11 0.13 0.14 0.16 0.21 0.26 0.24 0.17 0.15 0.20 0.16 0.06 0.03 0.02 0.02 0.02 0.02 0.03 0.08 0.24 0.35 0.41 0.47 0.52 0.64 0.72 0.71 0.54 0.40 0.40 0.38 0.32 0.28 0.25 0.21 0.14 0.11 0.08 0.07 0.05
0.18 0.17 0.13 0.11 0.14 0.15 0.16 0.19 0.24 0.32 0.37 0.29 0.26 0.25 0.11 0.05 0.03 0.02 0.04 0.08 0.09 0.10 0.20 0.24 0.26 0.32 0.39 0.55 0.67 0.72 0.62 0.49 0.46 0.48 0.43 0.35 0.29 0.22 0.15 0.10 0.07 0.05 0.04
0.15 0.12 0.10 0.10 0.14 0.16 0.17 0.18 0.20 0.25 0.32 0.31 0.25 0.20 0.14 0.07 0.04 0.04 0.13 0.21 0.17 0.11 0.14 0.15 0.16 0.23 0.32 0.47 0.60 0.67 0.65 0.56 0.49 0.50 0.48 0.40 0.33 0.25 0.17 0.11 0.07 0.06 0.04
0.12 0.12 0.07 0.06 0.09 0.13 0.16 0.17 0.17 0.23 0.27 0.27 0.22 0.16 0.09 0.06 0.05 0.07 0.19 0.30 0.23 0.16 0.14 0.12 0.12 0.17 0.29 0.44 0.56 0.61 0.61 0.57 0.52 0.50 0.46 0.39 0.32 0.27 0.19 0.13 0.08 0.05 0.03
0.14 0.10 0.10 0.08 0.09 0.12 0.15 0.17 0.17 0.23 0.28 0.25 0.17 0.07 0.05 0.09 0.12 0.14 0.21 0.24 0.18 0.15 0.13 0.10 0.11 0.15 0.25 0.39 0.48 0.52 0.52 0.51 0.48 0.46 0.42 0.36 0.30 0.27 0.23 0.15 0.09 0.05 0.03
0.15 0.11 0.10 0.09 0.08 0.09 0.09 0.14 0.15 0.16 0.16 0.17 0.15 0.07 0.04 0.08 0.15 0.19 0.20 0.19 0.16 0.14 0.11 0.10 0.12 0.16 0.22 0.31 0.37 0.42 0.43 0.43 0.42 0.40 0.38 0.33 0.28 0.26 0.24 0.18 0.12 0.07 0.04
0.15 0.12 0.10 0.10 0.09 0.07 0.10 0.14 0.13 0.13 0.14 0.15 0.14 0.13 0.13 0.16 0.17 0.20 0.21 0.19 0.17 0.14 0.11 0.11 0.14 0.18 0.23 0.27 0.30 0.33 0.33 0.34 0.33 0.32 0.33 0.30 0.27 0.25 0.23 0.17 0.12 0.08 0.06
0.14 0.13 0.10 0.09 0.09 0.10 0.12 0.13 0.11 0.09 0.11 0.13 0.12 0.13 0.15 0.17 0.19 0.21 0.20 0.18 0.16 0.13 0.12 0.13 0.16 0.18 0.20 0.24 0.29 0.29 0.30 0.30 0.29 0.29 0.28 0.26 0.25 0.23 0.21 0.17 0.12 0.09 0.07
0.16 0.17 0.13 0.11 0.09 0.11 0.12 0.11 0.09 0.09 0.09 0.12 0.13 0.15 0.17 0.18 0.19 0.21 0.19 0.17 0.16 0.15 0.17 0.17 0.18 0.18 0.19 0.22 0.23 0.24 0.27 0.28 0.30 0.30 0.29 0.26 0.23 0.21 0.19 0.16 0.13 0.10 0.08
0.11 0.17 0.18 0.16 0.11 0.09 0.10 0.09 0.07 0.07 0.07 0.09 0.13 0.15 0.18 0.18 0.20 0.22 0.19 0.17 0.16 0.18 0.20 0.18 0.16 0.17 0.20 0.21 0.19 0.18 0.20 0.21 0.25 0.27 0.26 0.23 0.21 0.19 0.17 0.14 0.11 0.09 0.07

GEFSGL_prec_meanprecacc_030.txt.gz
Total_Precipitation_Accumulation
0.00 0.00 0.00 0.00 0.00 0.00 0.01 0.01 0.01 0.02 0.02 0.03 0.05 0.07 0.09 0.10 0.14 0.18 0.25 0.36 0.49 0.57 0.55 0.48 0.42 0.43 0.42 0.36 0.33 0.29 0.28 0.31 0.34 0.35 0.41 0.48 0.47 0.35 0.30 0.25 0.14 0.10 0.10
0.00 0.00 0.00 0.00 0.00 0.00 0.00 0.00 0.00 0.00 0.00 0.01 0.01 0.02 0.02 0.03 0.06 0.09 0.15 0.22 0.34 0.50 0.65 0.69 0.60 0.53 0.47 0.41 0.37 0.35 0.34 0.36 0.41 0.49 0.53 0.56 0.51 0.47 0.40 0.22 0.12 0.08 0.07
0.00 0.00 0.00 0.00 0.00 0.00 0.00 0.00 0.00 0.00 0.01 0.01 0.01 0.01 0.01 0.03 0.04 0.06 0.07 0.09 0.14 0.23 0.39 0.60 0.69 0.66 0.54 0.47 0.41 0.38 0.38 0.38 0.40 0.44 0.53 0.63 0.69 0.62 0.41 0.18 0.10 0.08 0.06
0.00 0.00 0.01 0.01 0.01 0.01 0.01 0.01 0.01 0.01 0.02 0.02 0.02 0.02 0.03 0.03 0.04 0.06 0.07 0.07 0.07 0.09 0.16 0.29 0.47 0.64 0.62 0.55 0.47 0.41 0.42 0.45 0.45 0.46 0.55 0.67 0.76 0.75 0.49 0.24 0.13 0.10 0.06
0.02 0.01 0.01 0.01 0.01 0.01 0.01 0.02 0.02 0.03 0.03 0.04 0.05 0.06 0.06 0.06 0.04 0.06 0.11 0.12 0.14 0.13 0.11 0.13 0.19 0.34 0.49 0.56 0.52 0.47 0.45 0.46 0.49 0.49 0.55 0.69 0.76 0.75 0.51 0.29 0.14 0.09 0.07
0.01 0.01 0.01 0.02 0.03 0.04 0.04 0.05 0.06 0.07 0.08 0.10 0.10 0.11 0.11 0.07 0.06 0.07 0.10 0.14 0.21 0.26 0.23 0.19 0.15 0.15 0.24 0.37 0.46 0.48 0.48 0.45 0.48 0.49 0.54 0.66 0.73 0.68 0.61 0.38 0.19 0.09 0.09
0.01 0.01 0.02 0.03 0.04 0.06 0.08 0.11 0.12 0.12 0.13 0.16 0.15 0.15 0.15 0.14 0.12 0.10 0.07 0.14 0.23 0.30 0.35 0.33 0.20 0.11 0.15 0.20 0.27 0.36 0.39 0.37 0.38 0.45 0.51 0.62 0.84 0.90 0.79 0.48 0.27 0.18 0.13
0.01 0.02 0.03 0.05 0.07 0.10 0.12 0.14 0.17 0.20 0.20 0.20 0.19 0.19 0.20 0.18 0.16 0.12 0.10 0.16 0.24 0.24 0.31 0.37 0.29 0.23 0.22 0.24 0.22 0.21 0.24 0.25 0.25 0.28 0.38 0.55 0.77 1.01 0.98 0.82 0.60 0.37 0.27
0.03 0.04 0.06 0.09 0.11 0.13 0.15 0.17 0.22 0.25 0.22 0.21 0.21 0.23 0.25 0.25 0.22 0.14 0.12 0.22 0.29 0.26 0.27 0.30 0.33 0.29 0.23 0.22 0.26 0.20 0.17 0.18 0.20 0.22 0.29 0.47 0.64 0.84 1.01 0.97 0.73 0.44 0.31
0.07 0.08 0.10 0.13 0.15 0.16 0.17 0.20 0.22 0.26 0.26 0.24 0.22 0.25 0.29 0.30 0.27 0.16 0.13 0.23 0.32 0.31 0.32 0.36 0.42 0.40 0.29 0.20 0.24 0.24 0.17 0.14 0.15 0.16 0.20 0.29 0.43 0.57 0.76 0.77 0.61 0.41 0.26
0.08 0.10 0.11 0.12 0.15 0.15 0.18 0.20 0.22 0.24 0.23 0.23 0.24 0.27 0.30 0.31 0.26 0.14 0.12 0.20 0.28 0.31 0.31 0.33 0.42 0.40 0.32 0.21 0.23 0.25 0.19 0.18 0.19 0.17 0.18 0.24 0.35 0.47 0.56 0.68 0.61 0.43 0.26
0.07 0.09 0.10 0.11 0.13 0.15 0.21 0.23 0.24 0.25 0.24 0.22 0.23 0.24 0.29 0.31 0.24 0.15 0.08 0.11 0.22 0.31 0.42 0.44 0.49 0.50 0.39 0.30 0.26 0.25 0.18 0.15 0.20 0.22 0.21 0.23 0.28 0.35 0.46 0.58 0.63 0.51 0.35
0.09 0.10 0.11 0.13 0.16 0.21 0.27 0.29 0.30 0.30 0.30 0.27 0.24 0.22 0.24 0.28 0.24 0.12 0.07 0.07 0.14 0.27 0.48 0.62 0.65 0.62 0.52 0.41 0.36 0.33 0.23 0.17 0.17 0.18 0.20 0.20 0.22 0.31 0.44 0.54 0.57 0.51 0.41
0.14 0.12 0.13 0.15 0.15 0.18 0.25 0.28 0.30 0.31 0.30 0.26 0.24 0.24 0.25 0.27 0.24 0.15 0.10 0.06 0.08 0.18 0.38 0.55 0.68 0.74 0.69 0.57 0.48 0.44 0.30 0.20 0.18 0.17 0.19 0.23 0.27 0.34 0.43 0.41 0.40 0.37 0.34
0.16 0.14 0.13 0.11 0.11 0.13 0.18 0.22 0.20 0.22 0.18 0.16 0.17 0.20 0.22 0.23 0.15 0.09 0.11 0.12 0.11 0.14 0.28 0.53 0.69 0.79 0.81 0.75 0.63 0.54 0.41 0.30 0.24 0.23 0.22 0.24 0.27 0.32 0.36 0.36 0.33 0.28 0.22
0.19 0.16 0.13 0.12 0.13 0.15 0.17 0.19 0.18 0.15 0.12 0.12 0.13 0.10 0.07 0.07 0.04 0.02 0.02 0.03 0.04 0.09 0.26 0.51 0.66 0.74 0.76 0.79 0.75 0.67 0.52 0.38 0.31 0.28 0.25 0.25 0.27 0.27 0.28 0.31 0.29 0.27 0.20
0.19 0.17 0.13 0.11 0.13 0.15 0.17 0.22 0.28 0.26 0.18 0.15 0.20 0.16 0.06 0.03 0.02 0.02 0.02 0.02 0.04 0.09 0.28 0.42 0.47 0.53 0.59 0.70 0.77 0.74 0.57 0.43 0.41 0.40 0.34 0.29 0.29 0.27 0.24 0.25 0.27 0.24 0.21
0.18 0.17 0.13 0.11 0.14 0.16 0.18 0.21 0.27 0.34 0.38 0.31 0.27 0.26 0.11 0.05 0.03 0.03 0.04 0.08 0.09 0.11 0.23 0.28 0.29 0.34 0.42 0.57 0.70 0.74 0.64 0.51 0.48 0.50 0.45 0.37 0.33 0.27 0.24 0.20 0.21 0.20 0.17
0.15 0.12 0.10 0.10 0.14 0.17 0.19 0.20 0.23 0.28 0.34 0.33 0.26 0.20 0.14 0.07 0.04 0.04 0.13 0.21 0.17 0.11 0.15 0.17 0.18 0.24 0.33 0.49 0.62 0.69 0.67 0.58 0.51 0.52 0.50 0.42 0.36 0.29 0.24 0.20 0.18 0.18 0.15
0.12 0.12 0.07 0.06 0.09 0.15 0.18 0.19 0.20 0.25 0.29 0.29 0.23 0.17 0.10 0.06 0.05 0.07 0.19 0.30 0.23 0.16 0.15 0.13 0.13 0.18 0.30 0.45 0.57 0.62 0.62 0.59 0.54 0.52 0.48 0.41 0.36 0.31 0.24 0.22 0.18 0.14 0.11
0.14 0.10 0.10 0.08 0.10 0.13 0.16 0.19 0.19 0.25 0.30 0.27 0.19 0.09 0.06 0.10 0.13 0.15 0.22 0.25 0.19 0.16 0.13 0.11 0.12 0.16 0.26 0.39 0.48 0.53 0.53 0.52 0.50 0.48 0.44 0.38 0.32 0.30 0.27 0.22 0.19 0.14 0.09
0.15 0.11 0.10 0.09 0.09 0.09 0.10 0.16 0.17 0.18 0.18 0.19 0.17 0.09 0.05 0.09 0.17 0.21 0.22 0.21 0.17 0.15 0.12 0.11 0.13 0.17 0.23 0.31 0.37 0.42 0.43 0.44 0.43 0.42 0.39 0.34 0.30 0.28 0.28 0.24 0.20 0.17 0.12
0.15 0.12 0.10 0.10 0.10 0.08 0.11 0.16 0.16 0.15 0.16 0.16 0.15 0.15 0.15 0.18 0.19 0.22 0.24 0.22 0.19 0.16 0.12 0.12 0.15 0.19 0.23 0.27 0.30 0.33 0.33 0.34 0.33 0.33 0.33 0.30 0.28 0.27 0.26 0.22 0.19 0.17 0.14
0.14 0.13 0.10 0.09 0.09 0.11 0.13 0.15 0.14 0.11 0.13 0.14 0.14 0.16 0.18 0.21 0.22 0.24 0.23 0.21 0.18 0.15 0.13 0.14 0.16 0.18 0.21 0.25 0.29 0.30 0.30 0.30 0.30 0.30 0.29 0.27 0.26 0.25 0.24 0.22 0.19 0.18 0.16
0.16 0.17 0.13 0.11 0.09 0.11 0.13 0.12 0.11 0.10 0.11 0.14 0.16 0.19 0.21 0.23 0.25 0.24 0.22 0.20 0.19 0.19 0.20 0.20 0.20 0.19 0.19 0.22 0.24 0.24 0.27 0.28 0.30 0.30 0.30 0.27 0.24 0.24 0.23 0.22 0.20 0.20 0.20
0.11 0.17 0.18 0.16 0.11 0.09 0.11 0.11 0.09 0.09 0.09 0.11 0.17 0.21 0.23 0.25 0.28 0.28 0.24 0.22 0.23 0.24 0.25 0.23 0.20 0.19 0.22 0.22 0.19 0.19 0.20 0.22 0.26 0.29 0.28 0.26 0.25 0.25 0.25 0.23 0.22 0.21 0.22

GEFSGL_prec_meanprecacc_036.txt.gz
Total_Precipitation_Accumulation
0.00 0.00 0.00 0.00 0.00 0.00 0.01 0.01 0.01 0.02 0.02 0.03 0.05 0.07 0.09 0.10 0.14 0.18 0.25 0.36 0.49 0.57 0.55 0.48 0.42 0.43 0.42 0.36 0.33 0.29 0.29 0.33 0.36 0.38 0.46 0.56 0.59 0.46 0.41 0.35 0.24 0.19 0.16
0.00 0.00 0.00 0.00 0.00 0.00 0.00 0.00 0.00 0.00 0.00 0.01 0.01 0.02 0.02 0.03 0.06 0.09 0.15 0.22 0.34 0.50 0.65 0.69 0.60 0.53 0.47 0.41 0.37 0.35 0.34 0.37 0.43 0.52 0.59 0.65 0.64 0.62 0.55 0.38 0.24 0.18 0.14
0.00 0.00 0.00 0.00 0.00 0.00 0.00 0.00 0.00 0.00 0.01 0.01 0.01 0.01 0.01 0.03 0.04 0.06 0.07 0.09 0.14 0.23 0.39 0.60 0.69 0.66 0.54 0.47 0.41 0.38 0.38 0.39 0.41 0.46 0.57 0.72 0.82 0.79 0.56 0.33 0.23 0.19 0.14
0.00 0.00 0.01 0.01 0.01 0.01 0.01 0.01 0.01 0.01 0.02 0.02 0.02 0.02 0.03 0.03 0.04 0.06 0.07 0.07 0.07 0.09 0.16 0.29 0.47 0.64 0.62 0.55 0.47 0.41 0.42 0.45 0.45 0.47 0.57 0.75 0.91 0.94 0.67 0.38 0.25 0.19 0.14
0.02 0.01 0.01 0.01 0.01 0.01 0.01 0.02 0.02 0.03 0.03 0.04 0.05 0.06 0.06 0.06 0.04 0.06 0.11 0.12 0.14 0.13 0.11 0.13 0.19 0.34 0.49 0.56 0.52 0.47 0.45 0.46 0.49 0.50 0.57 0.74 0.89 0.95 0.69 0.44 0.28 0.21 0.15
0.01 0.01 0.01 0.02 0.03 0.04 0.04 0.05 0.06 0.07 0.08 0.10 0.10 0.11 0.11 0.07 0.06 0.07 0.10 0.14 0.21 0.26 0.23 0.19 0.15 0.15 0.24 0.37 0.46 0.49 0.48 0.45 0.48 0.50 0.56 0.70 0.82 0.86 0.85 0.64 0.40 0.22 0.16
0.01 0.01 0.02 0.03 0.04 0.06 0.08 0.11 0.12 0.12 0.13 0.16 0.15 0.15 0.15 0.14 0.12 0.10 0.07 0.14 0.23 0.30 0.35 0.33 0.20 0.11 0.15 0.20 0.28 0.36 0.39 0.38 0.39 0.45 0.53 0.65 0.90 1.05 1.08 0.78 0.53 0.38 0.24
0.01 0.02 0.03 0.05 0.07 0.10 0.12 0.14 0.17 0.20 0.20 0.20 0.19 0.19 0.20 0.18 0.16 0.12 0.10 0.17 0.24 0.24 0.31 0.37 0.29 0.23 0.22 0.24 0.22 0.21 0.24 0.25 0.25 0.28 0.39 0.57 0.82 1.13 1.25 1.17 0.97 0.70 0.50
0.03 0.04 0.06 0.09 0.11 0.13 0.15 0.17 0.22 0.25 0.22 0.21 0.21 0.23 0.25 0.25 0.22 0.15 0.13 0.23 0.29 0.26 0.27 0.30 0.33 0.29 0.23 0.22 0.26 0.20 0.18 0.18 0.20 0.23 0.31 0.50 0.69 0.93 1.24 1.34 1.18 0.86 0.62
0.07 0.08 0.10 0.13 0.15 0.16 0.17 0.20 0.22 0.26 0.26 0.24 0.22 0.25 0.29 0.30 0.27 0.16 0.13 0.24 0.32 0.31 0.32 0.36 0.42 0.40 0.29 0.20 0.24 0.24 0.18 0.15 0.16 0.17 0.22 0.33 0.48 0.66 0.94 1.06 0.96 0.78 0.55
0.08 0.10 0.11 0.12 0.15 0.15 0.18 0.20 0.22 0.24 0.23 0.23 0.24 0.27 0.30 0.31 0.26 0.14 0.12 0.21 0.29 0.32 0.31 0.33 0.42 0.41 0.33 0.22 0.24 0.26 0.20 0.19 0.21 0.19 0.20 0.27 0.41 0.57 0.71 0.91 0.92 0.73 0.52
0.07 0.09 0.10 0.11 0.13 0.15 0.21 0.23 0.24 0.25 0.24 0.22 0.23 0.24 0.29 0.31 0.24 0.15 0.08 0.12 0.23 0.32 0.42 0.45 0.50 0.51 0.40 0.31 0.28 0.27 0.21 0.19 0.24 0.26 0.24 0.25 0.32 0.43 0.59 0.76 0.89 0.82 0.61
0.09 0.10 0.11 0.13 0.16 0.21 0.27 0.29 0.30 0.30 0.30 0.27 0.24 0.22 0.24 0.29 0.24 0.12 0.07 0.07 0.15 0.29 0.50 0.64 0.67 0.65 0.55 0.45 0.39 0.36 0.26 0.21 0.21 0.22 0.22 0.22 0.25 0.36 0.55 0.72 0.84 0.88 0.76
0.14 0.12 0.13 0.15 0.15 0.18 0.25 0.28 0.30 0.31 0.30 0.26 0.24 0.24 0.25 0.27 0.24 0.16 0.10 0.06 0.09 0.19 0.41 0.60 0.73 0.80 0.76 0.64 0.54 0.49 0.35 0.26 0.23 0.21 0.22 0.26 0.30 0.40 0.53 0.61 0.69 0.74 0.73
0.16 0.14 0.13 0.11 0.11 0.13 0.18 0.22 0.20 0.22 0.19 0.16 0.18 0.20 0.23 0.23 0.15 0.10 0.11 0.12 0.11 0.15 0.31 0.59 0.79 0.91 0.92 0.88 0.74 0.64 0.51 0.39 0.32 0.30 0.28 0.29 0.31 0.37 0.46 0.54 0.60 0.60 0.53
0.19 0.16 0.13 0.12 0.13 0.15 0.17 0.19 0.18 0.15 0.12 0.12 0.13 0.10 0.08 0.08 0.05 0.03 0.02 0.04 0.06 0.11 0.30 0.57 0.78 0.91 0.93 0.99 0.93 0.82 0.64 0.48 0.40 0.36 0.32 0.30 0.31 0.30 0.35 0.46 0.53 0.56 0.48
0.19 0.17 0.13 0.11 0.13 0.15 0.17 0.22 0.28 0.26 0.18 0.16 0.21 0.16 0.06 0.03 0.02 0.03 0.03 0.04 0.06 0.12 0.32 0.48 0.56 0.66 0.78 0.91 0.95 0.89 0.70 0.54 0.51 0.49 0.41 0.35 0.33 0.31 0.28 0.36 0.46 0.51 0.50
0.18 0.17 0.13 0.11 0.14 0.16 0.18 0.21 0.27 0.34 0.39 0.31 0.27 0.26 0.12 0.05 0.04 0.03 0.05 0.09 0.10 0.13 0.26 0.32 0.34 0.41 0.55 0.75 0.85 0.87 0.77 0.62 0.58 0.59 0.53 0.43 0.38 0.31 0.27 0.27 0.36 0.41 0.43
0.15 0.12 0.10 0.10 0.14 0.17 0.19 0.20 0.23 0.28 0.34 0.33 0.27 0.21 0.15 0.08 0.05 0.05 0.13 0.22 0.18 0.13 0.17 0.19 0.20 0.27 0.39 0.55 0.70 0.80 0.79 0.69 0.61 0.60 0.56 0.47 0.40 0.33 0.28 0.25 0.27 0.36 0.38
0.12 0.12 0.07 0.06 0.09 0.15 0.18 0.20 0.20 0.25 0.30 0.30 0.24 0.18 0.11 0.07 0.06 0.08 0.20 0.30 0.24 0.18 0.17 0.14 0.15 0.21 0.32 0.48 0.61 0.68 0.70 0.68 0.62 0.59 0.53 0.46 0.40 0.34 0.28 0.26 0.24 0.26 0.29
0.14 0.11 0.10 0.08 0.10 0.13 0.16 0.19 0.19 0.25 0.30 0.27 0.20 0.10 0.07 0.11 0.15 0.17 0.23 0.26 0.20 0.17 0.15 0.13 0.14 0.18 0.27 0.42 0.52 0.58 0.59 0.59 0.56 0.53 0.49 0.42 0.36 0.34 0.30 0.26 0.23 0.20 0.22
0.15 0.11 0.10 0.09 0.09 0.09 0.10 0.16 0.18 0.18 0.19 0.19 0.18 0.10 0.07 0.11 0.19 0.23 0.24 0.23 0.19 0.17 0.13 0.12 0.14 0.18 0.23 0.33 0.39 0.45 0.47 0.48 0.47 0.46 0.44 0.39 0.34 0.31 0.30 0.27 0.24 0.21 0.22
0.15 0.13 0.10 0.10 0.10 0.08 0.11 0.16 0.16 0.15 0.16 0.17 0.16 0.16 0.17 0.21 0.23 0.26 0.27 0.25 0.22 0.19 0.14 0.13 0.15 0.19 0.24 0.28 0.31 0.34 0.35 0.36 0.36 0.36 0.37 0.35 0.33 0.30 0.28 0.25 0.22 0.21 0.20
0.15 0.13 0.10 0.09 0.09 0.11 0.13 0.15 0.14 0.12 0.13 0.15 0.15 0.18 0.21 0.24 0.27 0.29 0.27 0.25 0.22 0.18 0.16 0.16 0.17 0.18 0.21 0.25 0.29 0.30 0.30 0.30 0.31 0.32 0.32 0.29 0.28 0.27 0.26 0.24 0.22 0.21 0.21
0.16 0.17 0.13 0.11 0.09 0.11 0.13 0.12 0.11 0.11 0.11 0.15 0.18 0.21 0.24 0.26 0.29 0.29 0.28 0.27 0.25 0.23 0.23 0.22 0.21 0.19 0.20 0.23 0.24 0.25 0.28 0.28 0.30 0.31 0.31 0.29 0.25 0.25 0.24 0.23 0.22 0.24 0.25
0.11 0.17 0.18 0.16 0.11 0.09 0.11 0.11 0.09 0.10 0.10 0.13 0.19 0.23 0.25 0.28 0.33 0.33 0.30 0.29 0.29 0.30 0.29 0.26 0.22 0.20 0.22 0.23 0.20 0.19 0.20 0.22 0.26 0.29 0.29 0.27 0.25 0.26 0.25 0.24 0.24 0.25 0.27

GEFSGL_prec_meanprecacc_042.txt.gz
Total_Precipitation_Accumulation
0.00 0.00 0.00 0.00 0.00 0.00 0.01 0.01 0.01 0.02 0.02 0.03 0.05 0.07 0.09 0.10 0.14 0.19 0.25 0.37 0.50 0.57 0.55 0.48 0.43 0.43 0.42 0.36 0.33 0.30 0.30 0.33 0.37 0.39 0.47 0.58 0.61 0.50 0.46 0.40 0.31 0.28 0.25
0.00 0.00 0.00 0.00 0.00 0.00 0.00 0.00 0.00 0.00 0.01 0.01 0.01 0.02 0.02 0.03 0.06 0.10 0.15 0.23 0.35 0.51 0.66 0.69 0.60 0.53 0.48 0.41 0.37 0.36 0.34 0.37 0.43 0.52 0.60 0.66 0.66 0.65 0.59 0.42 0.29 0.25 0.23
0.00 0.00 0.00 0.00 0.00 0.00 0.00 0.00 0.00 0.01 0.01 0.01 0.01 0.01 0.02 0.03 0.05 0.06 0.07 0.09 0.15 0.24 0.40 0.61 0.70 0.67 0.55 0.48 0.42 0.38 0.38 0.39 0.41 0.47 0.58 0.73 0.84 0.81 0.59 0.36 0.27 0.24 0.22
0.00 0.00 0.01 0.01 0.01 0.01 0.01 0.01 0.01 0.01 0.02 0.02 0.02 0.03 0.03 0.03 0.04 0.06 0.07 0.08 0.08 0.10 0.17 0.30 0.48 0.65 0.63 0.56 0.48 0.42 0.43 0.45 0.46 0.48 0.58 0.75 0.92 0.96 0.72 0.43 0.30 0.24 0.21
0.02 0.01 0.01 0.01 0.01 0.01 0.01 0.02 0.02 0.03 0.03 0.05 0.06 0.06 0.07 0.06 0.04 0.06 0.12 0.12 0.15 0.14 0.12 0.14 0.20 0.35 0.50 0.57 0.53 0.47 0.45 0.47 0.50 0.50 0.58 0.75 0.90 0.97 0.74 0.52 0.37 0.28 0.22
0.01 0.01 0.01 0.02 0.03 0.04 0.04 0.05 0.06 0.07 0.09 0.11 0.11 0.11 0.11 0.07 0.06 0.07 0.10 0.15 0.22 0.27 0.24 0.21 0.17 0.16 0.25 0.37 0.46 0.49 0.48 0.46 0.49 0.51 0.57 0.71 0.83 0.88 0.91 0.73 0.51 0.32 0.23
0.01 0.01 0.02 0.03 0.04 0.06 0.08 0.11 0.12 0.12 0.14 0.16 0.16 0.15 0.15 0.15 0.12 0.10 0.07 0.14 0.23 0.31 0.36 0.34 0.22 0.12 0.16 0.21 0.28 0.36 0.39 0.38 0.39 0.46 0.53 0.66 0.91 1.06 1.13 0.88 0.66 0.52 0.37
0.01 0.02 0.03 0.05 0.07 0.10 0.12 0.14 0.17 0.20 0.20 0.20 0.20 0.19 0.21 0.18 0.16 0.12 0.10 0.17 0.24 0.25 0.33 0.38 0.32 0.25 0.24 0.26 0.25 0.23 0.25 0.26 0.25 0.29 0.39 0.58 0.83 1.16 1.30 1.27 1.14 0.91 0.74
0.03 0.04 0.06 0.09 0.11 0.13 0.15 0.17 0.22 0.25 0.23 0.21 0.21 0.23 0.26 0.25 0.22 0.15 0.13 0.23 0.30 0.27 0.28 0.32 0.35 0.32 0.25 0.23 0.27 0.23 0.20 0.20 0.21 0.23 0.31 0.50 0.69 0.94 1.26 1.41 1.33 1.08 0.86
0.07 0.08 0.10 0.13 0.15 0.16 0.17 0.20 0.23 0.26 0.26 0.24 0.22 0.25 0.29 0.31 0.27 0.16 0.13 0.24 0.33 0.32 0.34 0.38 0.43 0.40 0.30 0.20 0.26 0.28 0.21 0.18 0.18 0.18 0.22 0.33 0.49 0.66 0.95 1.10 1.05 0.94 0.76
0.08 0.10 0.11 0.12 0.15 0.15 0.18 0.20 0.22 0.24 0.24 0.23 0.24 0.27 0.31 0.31 0.26 0.14 0.12 0.21 0.30 0.33 0.32 0.35 0.44 0.41 0.33 0.22 0.24 0.28 0.22 0.22 0.25 0.23 0.23 0.29 0.43 0.59 0.73 0.94 0.98 0.85 0.70
0.07 0.09 0.10 0.11 0.13 0.15 0.21 0.23 0.24 0.25 0.24 0.23 0.24 0.24 0.29 0.32 0.24 0.16 0.08 0.13 0.23 0.33 0.43 0.46 0.51 0.51 0.40 0.32 0.28 0.27 0.21 0.19 0.26 0.30 0.28 0.28 0.34 0.45 0.63 0.81 0.96 0.93 0.79
0.09 0.10 0.11 0.13 0.16 0.21 0.27 0.29 0.30 0.30 0.31 0.28 0.25 0.22 0.24 0.30 0.26 0.13 0.08 0.07 0.15 0.29 0.51 0.65 0.68 0.65 0.55 0.45 0.39 0.36 0.27 0.22 0.25 0.26 0.26 0.25 0.28 0.39 0.60 0.80 0.96 1.03 0.95
0.14 0.12 0.13 0.15 0.15 0.18 0.25 0.28 0.30 0.32 0.31 0.26 0.25 0.24 0.25 0.28 0.27 0.19 0.13 0.07 0.10 0.20 0.41 0.60 0.74 0.81 0.77 0.66 0.56 0.50 0.37 0.29 0.28 0.26 0.27 0.31 0.37 0.46 0.61 0.69 0.79 0.88 0.90
0.16 0.14 0.13 0.11 0.11 0.13 0.18 0.22 0.20 0.22 0.19 0.17 0.18 0.21 0.23 0.25 0.17 0.11 0.12 0.13 0.12 0.16 0.32 0.60 0.82 0.95 0.97 0.94 0.81 0.70 0.57 0.45 0.38 0.37 0.38 0.39 0.41 0.46 0.54 0.64 0.72 0.73 0.69
0.19 0.16 0.13 0.12 0.13 0.15 0.17 0.19 0.18 0.15 0.12 0.12 0.14 0.11 0.08 0.08 0.05 0.03 0.03 0.05 0.07 0.12 0.31 0.59 0.81 0.97 1.01 1.08 1.05 0.94 0.76 0.60 0.50 0.47 0.44 0.43 0.43 0.41 0.45 0.57 0.67 0.71 0.63
0.19 0.17 0.13 0.11 0.13 0.15 0.17 0.22 0.28 0.26 0.18 0.16 0.21 0.17 0.06 0.04 0.03 0.03 0.04 0.05 0.07 0.13 0.33 0.51 0.60 0.72 0.86 1.02 1.07 1.02 0.84 0.68 0.64 0.61 0.54 0.48 0.47 0.44 0.40 0.48 0.60 0.66 0.67
0.18 0.17 0.14 0.11 0.14 0.16 0.18 0.21 0.27 0.35 0.39 0.33 0.29 0.27 0.12 0.06 0.04 0.04 0.06 0.10 0.12 0.14 0.28 0.35 0.38 0.47 0.63 0.85 0.99 1.02 0.92 0.77 0.72 0.73 0.67 0.57 0.52 0.46 0.40 0.39 0.48 0.56 0.60
0.15 0.12 0.10 0.11 0.14 0.17 0.19 0.21 0.24 0.28 0.35 0.35 0.29 0.26 0.16 0.08 0.06 0.06 0.15 0.24 0.21 0.16 0.21 0.23 0.24 0.32 0.44 0.62 0.82 0.94 0.94 0.85 0.76 0.76 0.74 0.63 0.58 0.50 0.42 0.37 0.40 0.50 0.54
0.13 0.12 0.08 0.06 0.09 0.15 0.18 0.20 0.21 0.26 0.31 0.32 0.28 0.23 0.15 0.09 0.10 0.13 0.24 0.34 0.27 0.22 0.21 0.18 0.20 0.27 0.38 0.55 0.71 0.81 0.85 0.84 0.78 0.75 0.71 0.63 0.56 0.52 0.44 0.39 0.37 0.39 0.43
0.14 0.11 0.10 0.08 0.10 0.14 0.16 0.19 0.20 0.26 0.31 0.29 0.24 0.14 0.09 0.12 0.18 0.22 0.29 0.32 0.26 0.23 0.20 0.17 0.19 0.23 0.33 0.48 0.60 0.69 0.72 0.73 0.72 0.69 0.66 0.59 0.53 0.51 0.49 0.44 0.37 0.34 0.37
0.16 0.12 0.10 0.10 0.09 0.10 0.10 0.16 0.18 0.18 0.20 0.22 0.22 0.14 0.10 0.14 0.23 0.28 0.30 0.30 0.26 0.24 0.19 0.17 0.19 0.23 0.28 0.38 0.48 0.56 0.58 0.61 0.62 0.63 0.60 0.56 0.51 0.48 0.48 0.46 0.41 0.38 0.38
0.16 0.14 0.11 0.11 0.11 0.09 0.12 0.17 0.16 0.15 0.17 0.20 0.20 0.20 0.22 0.26 0.29 0.33 0.34 0.33 0.29 0.27 0.22 0.19 0.20 0.24 0.29 0.33 0.38 0.43 0.45 0.48 0.49 0.50 0.53 0.53 0.50 0.47 0.45 0.42 0.39 0.36 0.35
0.15 0.14 0.11 0.11 0.11 0.13 0.14 0.16 0.14 0.12 0.15 0.17 0.18 0.21 0.25 0.28 0.32 0.36 0.34 0.31 0.29 0.27 0.24 0.23 0.23 0.23 0.26 0.31 0.35 0.36 0.37 0.39 0.42 0.44 0.46 0.47 0.46 0.44 0.43 0.40 0.38 0.36 0.35
0.17 0.18 0.15 0.12 0.10 0.12 0.14 0.13 0.12 0.11 0.12 0.16 0.20 0.24 0.27 0.30 0.34 0.34 0.33 0.32 0.31 0.31 0.31 0.29 0.28 0.25 0.25 0.27 0.29 0.30 0.32 0.31 0.36 0.41 0.43 0.43 0.40 0.39 0.40 0.38 0.37 0.38 0.40
0.14 0.19 0.20 0.18 0.12 0.10 0.12 0.11 0.09 0.10 0.11 0.14 0.21 0.25 0.28 0.31 0.36 0.37 0.35 0.34 0.35 0.36 0.35 0.33 0.29 0.26 0.27 0.28 0.24 0.22 0.22 0.24 0.29 0.34 0.38 0.38 0.39 0.39 0.39 0.39 0.38 0.38 0.40

GEFSGL_prec_meanprecacc_048.txt.gz
Total_Precipitation_Accumulation
0.00 0.00 0.00 0.00 0.00 0.00 0.01 0.01 0.02 0.02 0.03 0.04 0.06 0.08 0.10 0.12 0.15 0.20 0.27 0.38 0.51 0.59 0.57 0.50 0.44 0.44 0.43 0.37 0.33 0.30 0.30 0.33 0.37 0.39 0.48 0.59 0.63 0.54 0.54 0.51 0.46 0.46 0.37
0.00 0.00 0.00 0.00 0.00 0.00 0.00 0.00 0.00 0.01 0.01 0.01 0.02 0.02 0.03 0.04 0.07 0.11 0.17 0.24 0.36 0.53 0.68 0.72 0.63 0.56 0.51 0.43 0.39 0.36 0.35 0.38 0.44 0.53 0.60 0.67 0.68 0.67 0.63 0.49 0.40 0.38 0.40
0.00 0.00 0.00 0.00 0.00 0.00 0.00 0.00 0.01 0.01 0.01 0.01 0.02 0.02 0.03 0.04 0.06 0.07 0.09 0.11 0.17 0.27 0.44 0.65 0.74 0.71 0.59 0.51 0.45 0.40 0.39 0.40 0.42 0.47 0.58 0.74 0.84 0.83 0.62 0.40 0.34 0.36 0.36
0.00 0.00 0.01 0.01 0.01 0.01 0.01 0.01 0.01 0.02 0.02 0.02 0.03 0.03 0.04 0.04 0.05 0.08 0.09 0.10 0.12 0.14 0.21 0.34 0.52 0.69 0.68 0.60 0.51 0.45 0.45 0.47 0.48 0.49 0.58 0.76 0.93 0.98 0.75 0.47 0.37 0.35 0.34
0.02 0.01 0.01 0.01 0.01 0.01 0.01 0.02 0.03 0.03 0.03 0.05 0.06 0.07 0.07 0.07 0.05 0.07 0.13 0.14 0.16 0.16 0.15 0.17 0.23 0.38 0.53 0.60 0.54 0.50 0.49 0.50 0.52 0.52 0.59 0.76 0.91 0.99 0.77 0.55 0.43 0.39 0.37
0.01 0.01 0.01 0.02 0.03 0.04 0.04 0.05 0.06 0.07 0.09 0.11 0.11 0.12 0.12 0.08 0.06 0.07 0.10 0.15 0.23 0.28 0.25 0.23 0.19 0.18 0.26 0.38 0.46 0.49 0.49 0.47 0.51 0.53 0.58 0.73 0.86 0.90 0.95 0.78 0.58 0.41 0.34
0.01 0.01 0.02 0.03 0.04 0.06 0.08 0.11 0.12 0.12 0.14 0.16 0.16 0.16 0.16 0.16 0.13 0.10 0.07 0.14 0.23 0.31 0.37 0.37 0.23 0.13 0.18 0.25 0.32 0.38 0.40 0.38 0.39 0.46 0.54 0.67 0.94 1.10 1.19 0.94 0.74 0.62 0.49
0.01 0.02 0.03 0.05 0.07 0.10 0.12 0.14 0.17 0.20 0.20 0.21 0.20 0.20 0.22 0.20 0.17 0.12 0.10 0.17 0.24 0.25 0.33 0.41 0.35 0.29 0.28 0.32 0.32 0.31 0.31 0.30 0.28 0.30 0.39 0.58 0.84 1.19 1.35 1.33 1.21 1.00 0.86
0.03 0.04 0.06 0.09 0.11 0.13 0.15 0.17 0.22 0.25 0.23 0.21 0.21 0.24 0.27 0.27 0.23 0.15 0.13 0.23 0.30 0.28 0.30 0.35 0.40 0.39 0.31 0.25 0.30 0.27 0.25 0.26 0.23 0.24 0.31 0.50 0.69 0.94 1.27 1.42 1.36 1.14 0.93
0.07 0.08 0.10 0.13 0.15 0.16 0.17 0.20 0.23 0.26 0.26 0.24 0.22 0.26 0.30 0.32 0.29 0.16 0.13 0.24 0.33 0.33 0.37 0.43 0.46 0.42 0.31 0.21 0.27 0.31 0.25 0.23 0.23 0.23 0.26 0.34 0.49 0.66 0.95 1.10 1.06 0.98 0.83
0.08 0.10 0.11 0.12 0.15 0.15 0.18 0.20 0.22 0.24 0.24 0.24 0.24 0.28 0.32 0.32 0.27 0.15 0.12 0.22 0.30 0.35 0.34 0.37 0.47 0.42 0.33 0.22 0.25 0.29 0.24 0.25 0.30 0.29 0.29 0.34 0.46 0.60 0.74 0.94 0.98 0.86 0.74
0.07 0.09 0.10 0.11 0.13 0.15 0.21 0.23 0.24 0.25 0.24 0.23 0.24 0.26 0.31 0.35 0.27 0.18 0.09 0.13 0.24 0.33 0.44 0.47 0.54 0.51 0.40 0.32 0.28 0.27 0.21 0.19 0.27 0.32 0.31 0.31 0.38 0.47 0.64 0.83 0.97 0.94 0.81
0.09 0.10 0.11 0.13 0.17 0.21 0.27 0.29 0.30 0.31 0.31 0.28 0.26 0.23 0.25 0.33 0.31 0.14 0.08 0.07 0.15 0.29 0.51 0.65 0.69 0.65 0.55 0.46 0.39 0.36 0.27 0.22 0.25 0.27 0.28 0.27 0.30 0.41 0.63 0.83 0.99 1.06 0.98
0.14 0.13 0.14 0.15 0.16 0.19 0.26 0.29 0.31 0.32 0.31 0.28 0.26 0.26 0.27 0.32 0.34 0.27 0.20 0.12 0.12 0.21 0.42 0.62 0.75 0.81 0.77 0.66 0.57 0.51 0.37 0.30 0.29 0.29 0.30 0.34 0.40 0.51 0.65 0.73 0.83 0.93 0.94
0.17 0.15 0.14 0.12 0.12 0.16 0.21 0.23 0.20 0.23 0.19 0.17 0.19 0.22 0.24 0.26 0.21 0.13 0.14 0.15 0.15 0.19 0.34 0.62 0.83 0.98 1.01 0.99 0.86 0.76 0.63 0.50 0.41 0.40 0.42 0.43 0.45 0.51 0.59 0.69 0.77 0.80 0.75
0.21 0.18 0.15 0.13 0.14 0.16 0.18 0.20 0.19 0.15 0.13 0.13 0.14 0.11 0.08 0.08 0.05 0.03 0.03 0.05 0.07 0.12 0.31 0.59 0.82 0.99 1.05 1.15 1.14 1.04 0.87 0.69 0.58 0.54 0.50 0.49 0.49 0.47 0.51 0.64 0.75 0.79 0.71
0.22 0.20 0.16 0.13 0.14 0.16 0.19 0.24 0.30 0.28 0.19 0.17 0.21 0.17 0.07 0.04 0.03 0.03 0.04 0.05 0.07 0.13 0.33 0.51 0.61 0.75 0.91 1.08 1.15 1.12 0.95 0.79 0.76 0.72 0.62 0.56 0.55 0.52 0.49 0.56 0.69 0.76 0.77
0.21 0.21 0.17 0.14 0.16 0.18 0.20 0.24 0.30 0.37 0.42 0.36 0.32 0.29 0.13 0.06 0.04 0.04 0.06 0.10 0.12 0.15 0.29 0.36 0.42 0.53 0.70 0.93 1.08 1.12 1.03 0.89 0.85 0.84 0.78 0.68 0.63 0.56 0.50 0.48 0.58 0.66 0.70
0.19 0.16 0.13 0.14 0.17 0.20 0.22 0.25 0.28 0.32 0.38 0.38 0.34 0.32 0.20 0.10 0.06 0.07 0.16 0.24 0.21 0.18 0.26 0.29 0.32 0.41 0.54 0.73 0.93 1.05 1.06 0.97 0.87 0.87 0.85 0.75 0.70 0.63 0.53 0.47 0.52 0.62 0.68
0.15 0.15 0.11 0.10 0.13 0.18 0.21 0.23 0.24 0.30 0.34 0.36 0.33 0.31 0.24 0.16 0.16 0.21 0.30 0.38 0.31 0.28 0.29 0.28 0.30 0.37 0.49 0.68 0.84 0.93 0.98 0.96 0.89 0.87 0.84 0.76 0.70 0.66 0.57 0.52 0.50 0.52 0.56
0.17 0.14 0.13 0.12 0.14 0.18 0.21 0.24 0.25 0.30 0.36 0.34 0.29 0.20 0.13 0.15 0.23 0.32 0.42 0.45 0.38 0.35 0.32 0.28 0.29 0.34 0.45 0.62 0.75 0.84 0.86 0.87 0.85 0.82 0.80 0.73 0.68 0.66 0.64 0.59 0.52 0.50 0.53
0.19 0.16 0.15 0.15 0.16 0.17 0.16 0.22 0.23 0.24 0.25 0.27 0.28 0.21 0.15 0.19 0.32 0.39 0.43 0.43 0.40 0.38 0.32 0.28 0.27 0.32 0.38 0.49 0.61 0.70 0.73 0.75 0.77 0.77 0.74 0.70 0.66 0.64 0.64 0.62 0.58 0.54 0.55
0.20 0.18 0.16 0.16 0.17 0.16 0.18 0.22 0.22 0.21 0.23 0.26 0.27 0.28 0.30 0.36 0.39 0.44 0.45 0.44 0.40 0.36 0.32 0.28 0.29 0.32 0.38 0.43 0.50 0.56 0.58 0.60 0.62 0.63 0.67 0.66 0.65 0.63 0.62 0.60 0.56 0.54 0.50
0.18 0.18 0.15 0.16 0.18 0.21 0.22 0.23 0.22 0.19 0.21 0.23 0.25 0.28 0.32 0.36 0.41 0.44 0.42 0.40 0.37 0.34 0.32 0.30 0.30 0.30 0.34 0.40 0.45 0.46 0.47 0.48 0.50 0.54 0.58 0.60 0.61 0.60 0.60 0.56 0.56 0.55 0.54
0.21 0.24 0.22 0.21 0.19 0.21 0.22 0.20 0.17 0.16 0.18 0.22 0.25 0.30 0.33 0.36 0.41 0.41 0.41 0.40 0.37 0.37 0.37 0.35 0.34 0.31 0.31 0.34 0.37 0.39 0.39 0.35 0.40 0.47 0.52 0.54 0.54 0.55 0.57 0.55 0.55 0.58 0.60
0.18 0.26 0.28 0.27 0.21 0.18 0.20 0.18 0.15 0.14 0.15 0.18 0.24 0.28 0.31 0.35 0.41 0.42 0.40 0.40 0.40 0.39 0.40 0.39 0.37 0.33 0.34 0.34 0.31 0.28 0.25 0.25 0.30 0.36 0.43 0.48 0.52 0.57 0.59 0.58 0.57 0.59 0.63

GEFSGL_prec_meanprecacc_054.txt.gz
Total_Precipitation_Accumulation
0.00 0.00 0.00 0.00 0.00 0.00 0.01 0.01 0.02 0.02 0.03 0.04 0.06 0.08 0.10 0.12 0.15 0.21 0.27 0.38 0.51 0.59 0.57 0.50 0.44 0.44 0.43 0.37 0.33 0.30 0.30 0.33 0.37 0.39 0.48 0.60 0.63 0.55 0.55 0.52 0.49 0.49 0.40
0.00 0.00 0.00 0.00 0.00 0.00 0.00 0.00 0.00 0.01 0.01 0.01 0.02 0.02 0.03 0.04 0.07 0.11 0.17 0.24 0.37 0.53 0.69 0.72 0.63 0.56 0.51 0.43 0.39 0.36 0.35 0.38 0.44 0.53 0.60 0.67 0.69 0.67 0.63 0.50 0.41 0.39 0.43
0.00 0.00 0.00 0.00 0.00 0.00 0.00 0.00 0.01 0.01 0.01 0.01 0.02 0.02 0.03 0.04 0.06 0.07 0.09 0.11 0.17 0.27 0.44 0.65 0.74 0.72 0.59 0.51 0.45 0.40 0.39 0.40 0.42 0.47 0.58 0.74 0.85 0.83 0.62 0.40 0.34 0.37 0.38
0.00 0.00 0.01 0.01 0.01 0.01 0.01 0.01 0.01 0.02 0.02 0.02 0.03 0.03 0.04 0.04 0.05 0.08 0.09 0.10 0.12 0.14 0.21 0.34 0.52 0.69 0.68 0.60 0.52 0.45 0.45 0.47 0.48 0.49 0.58 0.76 0.93 0.98 0.75 0.47 0.37 0.35 0.35
0.02 0.01 0.01 0.01 0.01 0.01 0.01 0.02 0.03 0.03 0.03 0.05 0.06 0.07 0.07 0.07 0.05 0.07 0.13 0.14 0.16 0.16 0.15 0.17 0.23 0.38 0.53 0.60 0.54 0.50 0.49 0.50 0.52 0.52 0.59 0.76 0.91 0.99 0.77 0.56 0.43 0.39 0.37
0.01 0.01 0.01 0.02 0.03 0.04 0.04 0.05 0.06 0.07 0.09 0.11 0.11 0.12 0.12 0.08 0.06 0.07 0.10 0.15 0.23 0.28 0.25 0.23 0.19 0.18 0.26 0.38 0.46 0.49 0.49 0.47 0.51 0.53 0.58 0.73 0.86 0.90 0.95 0.78 0.58 0.42 0.34
0.01 0.01 0.02 0.03 0.04 0.06 0.08 0.11 0.12 0.12 0.14 0.16 0.16 0.16 0.16 0.16 0.13 0.10 0.07 0.14 0.23 0.31 0.37 0.37 0.23 0.13 0.18 0.25 0.32 0.38 0.40 0.38 0.39 0.46 0.54 0.67 0.94 1.10 1.19 0.94 0.74 0.62 0.49
0.01 0.02 0.03 0.05 0.07 0.10 0.12 0.14 0.17 0.20 0.20 0.21 0.20 0.20 0.22 0.20 0.17 0.12 0.10 0.17 0.24 0.25 0.33 0.41 0.35 0.29 0.28 0.32 0.32 0.31 0.31 0.30 0.28 0.30 0.39 0.58 0.84 1.19 1.35 1.33 1.21 1.00 0.86
0.03 0.05 0.06 0.09 0.11 0.13 0.15 0.17 0.22 0.25 0.23 0.21 0.21 0.24 0.27 0.27 0.23 0.15 0.13 0.23 0.30 0.28 0.30 0.35 0.40 0.39 0.31 0.25 0.30 0.27 0.25 0.26 0.23 0.24 0.31 0.50 0.69 0.94 1.27 1.42 1.36 1.14 0.93
0.08 0.09 0.11 0.13 0.15 0.16 0.17 0.20 0.23 0.26 0.26 0.24 0.22 0.26 0.30 0.33 0.29 0.16 0.13 0.24 0.33 0.33 0.37 0.43 0.46 0.42 0.32 0.21 0.27 0.31 0.25 0.23 0.23 0.23 0.26 0.34 0.49 0.66 0.95 1.10 1.06 0.98 0.83
0.09 0.11 0.12 0.13 0.16 0.17 0.20 0.21 0.23 0.25 0.24 0.24 0.24 0.28 0.32 0.33 0.28 0.15 0.12 0.22 0.31 0.35 0.34 0.37 0.48 0.42 0.33 0.22 0.25 0.29 0.24 0.25 0.30 0.29 0.29 0.34 0.46 0.60 0.74 0.94 0.98 0.86 0.74
0.10 0.13 0.14 0.16 0.18 0.19 0.24 0.25 0.25 0.26 0.25 0.24 0.25 0.26 0.31 0.35 0.27 0.18 0.09 0.13 0.24 0.33 0.44 0.47 0.54 0.51 0.40 0.32 0.28 0.27 0.21 0.19 0.27 0.32 0.31 0.32 0.38 0.47 0.64 0.83 0.97 0.94 0.81
0.16 0.17 0.18 0.18 0.21 0.25 0.30 0.31 0.32 0.32 0.32 0.29 0.27 0.24 0.26 0.34 0.32 0.14 0.08 0.08 0.15 0.29 0.51 0.65 0.69 0.65 0.55 0.46 0.39 0.36 0.27 0.22 0.25 0.27 0.28 0.27 0.30 0.41 0.63 0.84 0.99 1.06 0.99
0.20 0.19 0.19 0.19 0.19 0.23 0.30 0.32 0.33 0.34 0.34 0.30 0.29 0.28 0.28 0.33 0.34 0.28 0.20 0.12 0.12 0.21 0.42 0.62 0.75 0.81 0.77 0.66 0.57 0.51 0.37 0.30 0.30 0.29 0.30 0.34 0.40 0.51 0.65 0.73 0.83 0.93 0.95
0.22 0.20 0.20 0.17 0.18 0.20 0.24 0.27 0.24 0.26 0.23 0.21 0.22 0.25 0.27 0.29 0.23 0.16 0.15 0.16 0.16 0.19 0.34 0.62 0.83 0.98 1.01 0.99 0.86 0.76 0.63 0.50 0.41 0.41 0.43 0.43 0.45 0.51 0.59 0.69 0.78 0.80 0.75
0.26 0.24 0.21 0.19 0.19 0.21 0.23 0.24 0.23 0.19 0.17 0.18 0.19 0.16 0.13 0.13 0.11 0.07 0.05 0.07 0.08 0.13 0.31 0.59 0.82 0.99 1.05 1.15 1.14 1.05 0.87 0.70 0.59 0.55 0.51 0.50 0.49 0.47 0.51 0.64 0.75 0.79 0.72
0.25 0.23 0.19 0.16 0.17 0.19 0.21 0.27 0.32 0.31 0.24 0.21 0.27 0.23 0.13 0.11 0.10 0.09 0.08 0.08 0.09 0.14 0.34 0.51 0.61 0.75 0.91 1.08 1.15 1.12 0.96 0.81 0.78 0.73 0.63 0.57 0.56 0.52 0.49 0.57 0.69 0.77 0.78
0.22 0.22 0.18 0.15 0.18 0.19 0.21 0.26 0.33 0.41 0.46 0.41 0.37 0.35 0.19 0.12 0.10 0.10 0.11 0.13 0.14 0.16 0.29 0.36 0.42 0.53 0.70 0.94 1.08 1.12 1.04 0.91 0.86 0.86 0.80 0.70 0.64 0.58 0.50 0.48 0.59 0.66 0.71
0.19 0.16 0.14 0.15 0.18 0.21 0.24 0.26 0.30 0.35 0.42 0.43 0.40 0.38 0.27 0.16 0.12 0.13 0.20 0.27 0.23 0.20 0.27 0.30 0.33 0.42 0.56 0.75 0.94 1.06 1.07 0.98 0.89 0.89 0.86 0.76 0.71 0.64 0.54 0.48 0.52 0.62 0.69
0.16 0.15 0.12 0.11 0.14 0.19 0.24 0.26 0.28 0.34 0.40 0.42 0.40 0.39 0.33 0.24 0.23 0.28 0.36 0.43 0.35 0.30 0.32 0.32 0.34 0.42 0.53 0.71 0.87 0.96 1.01 0.98 0.92 0.89 0.86 0.77 0.72 0.68 0.58 0.53 0.51 0.54 0.57
0.17 0.14 0.14 0.13 0.15 0.20 0.24 0.28 0.30 0.36 0.43 0.43 0.37 0.29 0.22 0.24 0.32 0.40 0.49 0.51 0.43 0.40 0.37 0.34 0.34 0.38 0.49 0.66 0.78 0.88 0.91 0.91 0.89 0.85 0.83 0.76 0.71 0.69 0.66 0.61 0.54 0.52 0.55
0.20 0.16 0.16 0.16 0.17 0.18 0.19 0.25 0.28 0.29 0.31 0.34 0.35 0.30 0.24 0.27 0.38 0.46 0.49 0.50 0.46 0.43 0.37 0.32 0.30 0.34 0.41 0.52 0.64 0.73 0.76 0.79 0.81 0.80 0.77 0.73 0.69 0.67 0.68 0.65 0.60 0.57 0.58
0.20 0.18 0.16 0.17 0.18 0.17 0.20 0.26 0.26 0.27 0.31 0.35 0.37 0.38 0.40 0.44 0.47 0.50 0.50 0.49 0.44 0.40 0.35 0.31 0.31 0.33 0.39 0.45 0.52 0.58 0.61 0.63 0.65 0.66 0.70 0.70 0.68 0.67 0.66 0.63 0.59 0.58 0.54
0.18 0.18 0.16 0.17 0.20 0.23 0.25 0.28 0.28 0.27 0.32 0.37 0.39 0.40 0.41 0.44 0.47 0.50 0.47 0.44 0.41 0.37 0.35 0.33 0.32 0.32 0.36 0.42 0.47 0.48 0.50 0.52 0.53 0.57 0.61 0.63 0.65 0.64 0.65 0.61 0.61 0.60 0.59
0.21 0.24 0.23 0.23 0.22 0.24 0.27 0.27 0.27 0.28 0.33 0.40 0.42 0.42 0.42 0.43 0.46 0.46 0.44 0.43 0.40 0.39 0.39 0.37 0.37 0.34 0.33 0.35 0.38 0.41 0.43 0.40 0.43 0.49 0.53 0.56 0.57 0.59 0.62 0.61 0.62 0.65 0.67
0.19 0.27 0.29 0.28 0.23 0.21 0.24 0.27 0.26 0.29 0.33 0.34 0.38 0.39 0.38 0.40 0.46 0.46 0.44 0.44 0.44 0.42 0.41 0.42 0.41 0.36 0.35 0.35 0.33 0.31 0.27 0.26 0.32 0.38 0.44 0.50 0.55 0.61 0.65 0.66 0.68 0.70 0.72

GEFSGL_prec_meanprecacc_060.txt.gz
Total_Precipitation_Accumulation
0.00 0.00 0.00 0.00 0.00 0.00 0.01 0.01 0.02 0.02 0.03 0.04 0.06 0.08 0.10 0.12 0.15 0.21 0.27 0.38 0.51 0.59 0.57 0.50 0.44 0.44 0.43 0.37 0.33 0.30 0.30 0.33 0.37 0.39 0.48 0.60 0.63 0.55 0.55 0.52 0.49 0.49 0.40
0.00 0.00 0.00 0.00 0.00 0.00 0.00 0.00 0.00 0.01 0.01 0.01 0.02 0.02 0.03 0.04 0.07 0.11 0.17 0.24 0.37 0.53 0.69 0.72 0.63 0.56 0.51 0.43 0.39 0.36 0.35 0.38 0.44 0.53 0.60 0.67 0.69 0.67 0.63 0.50 0.41 0.39 0.43
0.00 0.00 0.00 0.00 0.00 0.00 0.00 0.00 0.01 0.01 0.01 0.01 0.02 0.02 0.03 0.04 0.06 0.07 0.09 0.11 0.17 0.27 0.44 0.65 0.74 0.72 0.59 0.51 0.45 0.40 0.39 0.40 0.42 0.47 0.58 0.74 0.85 0.83 0.62 0.40 0.34 0.37 0.38
0.00 0.01 0.01 0.01 0.01 0.01 0.01 0.01 0.01 0.02 0.02 0.02 0.03 0.03 0.04 0.04 0.05 0.08 0.09 0.10 0.12 0.14 0.21 0.34 0.52 0.69 0.68 0.60 0.52 0.45 0.45 0.47 0.48 0.49 0.58 0.76 0.93 0.98 0.75 0.47 0.37 0.35 0.35
0.02 0.02 0.01 0.01 0.01 0.01 0.01 0.02 0.03 0.03 0.03 0.05 0.06 0.07 0.07 0.07 0.05 0.07 0.13 0.14 0.16 0.16 0.15 0.17 0.23 0.38 0.53 0.60 0.54 0.50 0.49 0.50 0.52 0.52 0.59 0.76 0.91 0.99 0.77 0.56 0.43 0.39 0.37
0.01 0.01 0.01 0.02 0.03 0.04 0.04 0.05 0.06 0.07 0.09 0.11 0.11 0.12 0.12 0.08 0.06 0.07 0.10 0.15 0.23 0.28 0.25 0.23 0.19 0.18 0.26 0.38 0.46 0.49 0.49 0.47 0.51 0.53 0.58 0.73 0.86 0.90 0.95 0.78 0.58 0.42 0.34
0.01 0.01 0.02 0.03 0.04 0.06 0.08 0.11 0.12 0.13 0.14 0.16 0.16 0.16 0.16 0.16 0.13 0.10 0.07 0.14 0.23 0.31 0.37 0.37 0.23 0.13 0.18 0.25 0.32 0.38 0.40 0.38 0.39 0.46 0.54 0.67 0.94 1.10 1.19 0.94 0.74 0.62 0.49
0.02 0.03 0.04 0.06 0.08 0.10 0.13 0.15 0.17 0.20 0.21 0.21 0.20 0.20 0.22 0.20 0.17 0.13 0.10 0.17 0.24 0.25 0.33 0.41 0.35 0.29 0.28 0.32 0.32 0.31 0.31 0.30 0.28 0.30 0.39 0.58 0.84 1.19 1.35 1.33 1.21 1.00 0.86
0.04 0.06 0.08 0.11 0.13 0.15 0.17 0.19 0.24 0.26 0.23 0.22 0.22 0.24 0.27 0.27 0.24 0.15 0.13 0.23 0.30 0.28 0.30 0.35 0.40 0.39 0.31 0.25 0.30 0.27 0.25 0.26 0.23 0.24 0.31 0.50 0.69 0.94 1.27 1.42 1.36 1.14 0.93
0.10 0.11 0.14 0.17 0.19 0.20 0.21 0.23 0.25 0.29 0.29 0.27 0.25 0.27 0.31 0.33 0.30 0.17 0.14 0.25 0.33 0.33 0.37 0.43 0.46 0.42 0.32 0.21 0.27 0.31 0.25 0.23 0.23 0.23 0.26 0.34 0.49 0.66 0.95 1.10 1.06 0.98 0.83
0.13 0.16 0.17 0.19 0.22 0.23 0.25 0.26 0.29 0.30 0.29 0.27 0.26 0.29 0.34 0.34 0.29 0.16 0.13 0.23 0.31 0.35 0.34 0.37 0.48 0.42 0.33 0.22 0.25 0.29 0.24 0.25 0.30 0.29 0.29 0.34 0.46 0.60 0.74 0.94 0.98 0.86 0.74
0.15 0.18 0.20 0.23 0.25 0.27 0.31 0.32 0.31 0.30 0.28 0.26 0.27 0.28 0.33 0.37 0.29 0.20 0.10 0.14 0.25 0.34 0.45 0.48 0.55 0.52 0.40 0.32 0.28 0.27 0.22 0.19 0.27 0.32 0.31 0.32 0.38 0.47 0.64 0.83 0.97 0.94 0.81
0.19 0.21 0.22 0.23 0.26 0.30 0.34 0.35 0.35 0.36 0.35 0.32 0.29 0.25 0.28 0.36 0.34 0.17 0.10 0.10 0.17 0.31 0.52 0.66 0.70 0.66 0.56 0.46 0.39 0.36 0.27 0.23 0.25 0.27 0.28 0.27 0.30 0.41 0.63 0.84 0.99 1.06 0.99
0.21 0.20 0.21 0.21 0.21 0.25 0.32 0.35 0.36 0.37 0.36 0.33 0.31 0.30 0.31 0.35 0.36 0.31 0.23 0.15 0.14 0.23 0.44 0.63 0.76 0.82 0.78 0.67 0.57 0.51 0.37 0.30 0.30 0.29 0.30 0.34 0.40 0.51 0.65 0.73 0.83 0.93 0.95
0.22 0.21 0.20 0.18 0.19 0.22 0.27 0.29 0.26 0.27 0.25 0.23 0.24 0.26 0.28 0.29 0.24 0.18 0.18 0.18 0.18 0.22 0.37 0.64 0.85 0.99 1.03 1.00 0.87 0.77 0.64 0.51 0.41 0.41 0.43 0.43 0.45 0.51 0.59 0.69 0.78 0.80 0.75
0.27 0.24 0.21 0.19 0.20 0.22 0.23 0.24 0.23 0.20 0.18 0.19 0.20 0.17 0.14 0.14 0.12 0.09 0.08 0.09 0.11 0.17 0.35 0.62 0.84 1.01 1.07 1.17 1.16 1.06 0.89 0.71 0.60 0.55 0.51 0.50 0.50 0.47 0.51 0.64 0.75 0.79 0.72
0.25 0.23 0.19 0.17 0.17 0.19 0.21 0.27 0.33 0.31 0.24 0.22 0.27 0.23 0.14 0.12 0.11 0.11 0.11 0.12 0.13 0.19 0.38 0.54 0.64 0.78 0.93 1.11 1.17 1.14 0.97 0.82 0.78 0.74 0.64 0.57 0.56 0.53 0.49 0.57 0.70 0.77 0.78
0.22 0.22 0.18 0.16 0.18 0.20 0.21 0.26 0.33 0.41 0.47 0.41 0.37 0.35 0.20 0.13 0.12 0.13 0.14 0.17 0.17 0.19 0.32 0.40 0.46 0.57 0.74 0.97 1.10 1.14 1.05 0.92 0.87 0.86 0.80 0.70 0.64 0.58 0.51 0.49 0.59 0.66 0.71
0.19 0.16 0.14 0.15 0.18 0.21 0.24 0.26 0.30 0.35 0.42 0.43 0.40 0.38 0.28 0.18 0.14 0.15 0.23 0.29 0.26 0.24 0.32 0.36 0.38 0.47 0.60 0.78 0.97 1.08 1.09 0.99 0.90 0.90 0.87 0.76 0.72 0.65 0.55 0.49 0.53 0.63 0.69
0.16 0.15 0.12 0.11 0.14 0.19 0.24 0.26 0.28 0.34 0.40 0.42 0.40 0.40 0.35 0.26 0.26 0.32 0.41 0.49 0.43 0.40 0.43 0.42 0.44 0.50 0.59 0.75 0.91 1.00 1.04 1.01 0.94 0.91 0.87 0.79 0.73 0.69 0.60 0.55 0.53 0.55 0.58
0.17 0.14 0.14 0.13 0.15 0.20 0.24 0.28 0.30 0.36 0.43 0.43 0.38 0.30 0.24 0.28 0.36 0.45 0.56 0.59 0.52 0.48 0.45 0.42 0.42 0.45 0.56 0.72 0.83 0.92 0.94 0.95 0.93 0.89 0.85 0.78 0.73 0.71 0.68 0.63 0.56 0.54 0.56
0.20 0.16 0.16 0.16 0.17 0.18 0.19 0.25 0.28 0.30 0.32 0.36 0.38 0.33 0.29 0.33 0.46 0.55 0.61 0.62 0.57 0.54 0.47 0.41 0.38 0.41 0.47 0.58 0.69 0.77 0.80 0.82 0.83 0.83 0.80 0.76 0.72 0.70 0.71 0.68 0.63 0.60 0.60
0.20 0.18 0.16 0.17 0.18 0.17 0.21 0.26 0.26 0.28 0.33 0.38 0.42 0.45 0.50 0.56 0.61 0.66 0.67 0.65 0.58 0.53 0.47 0.41 0.38 0.39 0.45 0.51 0.57 0.62 0.64 0.65 0.66 0.68 0.72 0.72 0.71 0.70 0.69 0.67 0.62 0.61 0.57
0.18 0.18 0.16 0.17 0.20 0.23 0.26 0.28 0.28 0.28 0.34 0.42 0.48 0.55 0.59 0.62 0.65 0.69 0.66 0.61 0.56 0.51 0.48 0.44 0.41 0.40 0.44 0.50 0.53 0.52 0.53 0.54 0.55 0.58 0.62 0.65 0.66 0.66 0.67 0.64 0.64 0.63 0.62
0.21 0.24 0.23 0.23 0.22 0.24 0.27 0.27 0.27 0.30 0.37 0.48 0.55 0.59 0.63 0.65 0.68 0.64 0.58 0.52 0.47 0.46 0.46 0.44 0.44 0.40 0.38 0.40 0.43 0.45 0.47 0.43 0.46 0.52 0.56 0.58 0.59 0.61 0.64 0.64 0.65 0.69 0.72
0.19 0.27 0.30 0.28 0.24 0.22 0.25 0.27 0.28 0.32 0.37 0.42 0.48 0.51 0.53 0.56 0.60 0.59 0.55 0.53 0.51 0.48 0.47 0.46 0.44 0.40 0.38 0.38 0.35 0.33 0.29 0.28 0.34 0.40 0.48 0.53 0.58 0.65 0.68 0.69 0.73 0.77 0.79